GFSCGP_sfc_thetae_000.txt.gz
Theta_e
304 300 299 305 305 306 306 308 309 312 314 319 318 319 323 327 327 327 328 329 331 332 335 337 340 341 343 345 345 345 346 349 352 349 347 346 344 345 347 348 350 350 348 349
300 299 307 311 310 307 305 306 308 312 314 311 318 318 323 326 327 329 329 331 332 334 334 337 340 343 343 343 344 347 346 350 350 350 347 348 347 348 349 350 351 350 348 349
298 303 312 311 309 307 302 306 307 309 314 314 317 312 316 324 327 328 331 333 333 335 334 336 339 340 343 343 347 348 349 351 351 351 350 349 347 345 342 343 344 341 339 340
301 307 309 309 308 306 297 307 313 312 311 303 312 301 309 318 319 321 326 329 331 333 338 338 339 338 342 346 351 350 352 352 352 350 350 345 339 330 332 336 338 334 334 337
300 304 305 305 308 307 304 307 306 313 309 304 307 303 310 312 309 313 322 328 330 333 338 339 340 340 344 348 352 352 352 352 352 348 349 336 326 328 333 333 331 329 330 334
303 310 308 308 311 309 311 305 301 301 299 295 304 302 301 309 313 316 319 328 330 332 337 340 342 340 345 349 352 353 350 347 342 339 331 325 327 327 329 328 325 327 324 333
301 304 308 310 303 306 304 296 291 290 290 290 296 303 305 314 318 317 318 326 329 332 333 336 336 338 345 347 349 351 348 343 334 331 328 325 328 327 326 326 327 326 329 329
295 295 305 307 304 301 300 298 292 288 290 293 299 295 302 317 321 320 322 327 330 330 332 334 334 338 343 347 347 349 345 342 334 331 329 329 330 328 327 328 329 323 325 329
293 295 307 308 309 305 301 296 301 295 296 293 296 301 311 315 318 319 319 322 325 329 331 332 335 338 342 345 347 348 343 340 336 332 330 330 330 331 332 332 328 325 328 330
297 293 302 308 307 306 305 304 296 293 289 287 294 297 300 310 314 317 317 317 321 327 331 332 334 337 342 344 347 349 344 341 337 336 332 332 332 332 331 329 328 329 327 329
301 296 300 302 300 300 302 299 297 297 294 290 289 294 306 313 316 317 319 321 319 324 328 332 334 336 342 344 346 348 345 342 338 337 335 334 334 333 330 330 329 329 329 330
300 295 296 299 305 306 305 301 298 294 292 293 293 296 311 313 315 320 320 322 321 322 327 330 333 334 339 341 345 346 346 343 341 340 337 336 336 333 331 330 330 330 330 329
303 294 294 295 298 301 302 302 301 297 295 293 293 297 310 311 311 313 313 315 318 322 323 329 330 331 336 339 343 345 346 344 343 341 337 332 329 329 330 330 329 329 328 327
310 295 296 295 296 300 299 302 303 299 294 294 296 299 305 310 311 313 314 317 319 322 323 327 329 330 335 339 342 344 345 345 342 340 338 330 327 327 329 330 329 329 328 327
303 295 297 299 304 305 305 304 303 299 299 298 299 301 305 310 313 314 316 318 319 319 324 325 329 331 335 337 340 343 344 343 341 339 336 332 331 329 328 329 329 329 328 328
299 296 299 300 303 305 302 306 306 306 304 303 302 303 310 313 316 314 317 317 317 320 328 326 329 333 336 338 339 340 341 341 340 337 336 334 333 331 330 331 330 329 328 327
299 298 296 294 301 303 300 303 304 305 308 305 299 304 309 310 313 312 313 314 314 317 320 329 332 333 338 340 340 337 338 339 336 335 334 333 333 332 332 332 330 329 328 326
300 297 295 295 295 291 301 309 312 309 310 310 307 309 311 313 314 313 313 313 315 316 316 319 328 333 339 343 341 337 334 335 335 333 333 334 334 333 332 330 329 329 329 328
308 304 299 293 291 296 304 308 309 307 307 313 310 313 313 314 315 312 314 315 316 315 317 320 323 330 335 341 340 334 333 334 333 332 332 333 334 333 331 329 329 330 328 327
308 307 303 299 293 291 299 312 315 311 301 313 314 313 311 313 307 310 316 317 319 322 323 324 326 337 335 337 335 333 332 331 331 332 333 334 334 332 330 330 331 332 330 328
301 302 298 297 295 298 308 314 314 299 301 313 313 312 311 312 313 315 316 318 320 324 327 328 337 338 335 334 334 331 330 330 332 333 332 332 334 333 332 332 333 331 328 324
303 301 299 299 296 293 314 313 308 309 312 314 315 316 316 315 317 318 318 316 316 316 323 327 335 336 335 334 334 331 329 330 331 329 328 327 323 332 336 333 331 327 325 323
303 307 305 305 303 311 314 312 313 314 312 314 314 316 316 317 318 321 319 319 317 319 321 326 331 334 333 333 330 324 324 328 328 326 326 323 325 324 326 331 329 325 322 320
311 315 308 307 311 314 316 315 316 316 315 316 318 319 318 316 320 320 320 325 328 328 325 332 329 326 324 327 327 327 330 328 325 324 324 324 322 322 327 328 327 324 321 318
310 310 310 309 313 313 314 314 314 317 318 317 317 318 318 321 328 330 328 327 326 324 324 326 327 325 323 326 326 328 327 325 324 324 325 324 325 327 322 314 313 316 306 310
308 309 306 305 311 310 311 314 315 311 312 313 312 312 315 319 327 332 328 326 323 322 323 324 326 326 323 323 322 323 325 323 320 318 323 323 326 321 313 310 306 301 299 298

GFSCGP_sfc_thetae_003.txt.gz
Theta_e
301 298 297 300 304 304 306 304 309 314 315 316 314 316 322 326 326 326 327 329 330 332 335 336 340 342 341 342 346 346 346 350 351 348 346 345 345 345 345 347 349 347 346 348
297 296 302 306 307 305 303 300 303 309 315 315 313 315 320 323 323 325 326 326 328 331 332 333 337 339 339 340 343 343 345 347 351 348 345 346 345 345 345 347 349 349 347 347
294 299 307 308 306 305 300 300 301 306 313 316 316 311 316 322 324 326 327 329 330 330 330 332 334 336 339 340 342 344 344 347 350 349 346 346 346 344 342 342 345 346 347 347
298 303 306 306 305 305 296 305 307 308 308 303 314 301 309 317 320 324 326 328 330 331 333 333 335 337 339 340 344 345 345 348 349 349 345 344 342 337 334 336 341 339 338 336
297 301 301 303 306 307 304 306 304 307 306 304 306 302 307 315 314 319 324 327 331 333 333 333 335 338 341 342 345 346 347 348 349 349 348 345 336 330 330 332 335 331 331 332
300 305 304 304 307 308 309 303 299 299 299 296 305 302 300 310 316 319 322 326 331 332 335 335 337 339 340 344 347 348 347 349 349 349 348 341 332 328 329 329 328 324 324 326
299 301 303 307 302 304 302 295 289 291 293 294 300 301 303 313 320 321 321 323 330 332 335 336 336 337 339 343 346 349 348 347 348 347 342 336 327 328 329 327 325 325 325 327
292 293 301 304 303 300 298 296 290 286 287 293 297 298 306 314 320 323 324 324 329 330 333 336 338 338 339 344 346 348 348 347 342 339 334 326 327 326 327 326 325 323 325 327
290 293 302 305 305 304 299 294 298 291 291 290 293 297 305 313 314 320 319 320 325 329 330 336 338 338 340 343 345 348 348 348 341 334 330 326 327 326 325 327 326 321 322 327
296 291 299 305 305 304 303 302 293 291 287 287 292 294 297 306 310 315 317 317 323 328 330 333 338 336 341 344 346 347 349 347 341 333 330 329 329 328 329 329 325 323 325 326
296 294 295 300 298 299 299 295 294 294 292 289 288 292 302 307 312 313 316 319 322 326 328 331 334 336 339 344 345 346 346 345 341 335 331 329 329 331 329 328 326 325 325 324
298 294 294 295 301 303 301 299 298 295 290 289 291 294 306 309 314 316 317 318 319 323 327 331 333 334 335 338 342 344 345 343 341 337 333 331 332 331 329 327 327 326 325 325
298 291 289 291 294 298 298 299 296 294 293 292 292 295 307 310 313 317 317 318 318 320 324 329 331 332 333 337 340 342 345 344 342 337 334 333 332 332 329 329 328 327 326 326
307 291 296 293 294 298 297 300 299 297 293 292 294 297 303 308 311 312 315 318 319 320 322 326 329 331 333 334 339 341 344 345 343 339 336 334 334 334 332 331 329 326 325 324
302 294 293 300 300 300 300 300 300 298 298 297 298 299 305 309 311 313 315 315 316 318 319 322 325 328 330 332 337 340 344 345 343 341 338 335 334 333 332 331 329 327 327 327
297 294 296 295 299 300 299 302 303 303 299 299 299 299 306 312 312 312 314 315 315 317 320 321 324 327 327 330 335 339 342 344 344 342 339 336 332 330 329 329 328 326 328 326
294 297 292 295 297 300 295 300 302 304 305 303 298 302 306 308 312 313 314 316 317 318 323 319 322 324 327 330 335 337 341 344 343 342 339 335 334 331 328 329 327 327 327 326
299 294 292 295 295 291 298 306 308 308 310 309 308 305 308 310 315 316 313 315 315 318 321 326 325 325 330 333 335 337 340 341 341 339 337 336 334 332 329 326 327 328 327 326
303 296 295 292 291 298 303 308 307 306 305 311 308 310 312 312 312 310 313 314 316 316 316 320 329 331 329 334 337 337 337 338 338 336 335 335 335 332 329 329 330 330 326 325
303 302 299 293 291 292 302 309 314 310 301 312 312 311 310 310 307 307 315 314 314 314 318 320 323 328 329 331 337 334 332 334 334 335 335 336 335 333 329 330 330 330 328 327
300 300 298 296 295 298 308 311 314 300 300 312 311 310 311 308 309 311 315 317 318 320 324 324 328 333 332 333 332 331 331 332 335 334 333 332 330 330 331 329 327 327 329 326
299 301 301 300 296 294 312 311 305 307 308 310 312 312 312 314 315 316 317 316 316 316 319 323 327 333 333 332 331 326 328 330 332 332 331 325 326 330 328 323 322 325 327 326
301 306 303 302 299 307 311 310 313 311 311 310 313 313 314 316 315 316 316 319 323 323 325 326 325 334 329 329 329 327 327 330 330 329 326 325 327 328 326 323 321 321 324 324
310 312 304 305 305 309 310 311 312 312 311 313 314 313 313 314 323 323 324 325 324 325 324 327 328 326 324 326 329 328 330 329 329 326 324 325 325 324 327 325 323 327 324 321
308 311 307 305 310 310 308 310 311 311 311 312 313 314 314 317 320 325 324 325 325 324 324 327 325 324 324 328 328 327 327 328 326 325 325 323 326 323 324 315 312 318 312 312
304 309 305 301 310 307 307 309 311 308 309 310 310 309 309 311 312 322 324 325 322 320 322 324 322 322 323 325 324 326 326 325 323 322 323 322 322 326 323 312 306 301 301 298

GFSCGP_sfc_thetae_006.txt.gz
Theta_e
299 297 294 300 303 309 306 307 309 311 315 313 312 314 323 326 325 325 326 328 331 332 336 339 340 343 343 343 347 348 349 352 351 349 348 348 347 349 349 349 350 350 349 350
296 294 300 304 305 305 308 303 306 308 314 314 313 314 322 325 325 326 326 327 328 331 331 334 337 340 339 340 345 347 349 350 352 349 348 349 348 348 349 349 350 350 350 349
293 297 304 306 303 302 299 299 299 307 313 315 314 310 314 323 325 326 327 329 330 330 330 331 334 337 339 338 342 345 346 349 351 350 348 348 348 347 346 347 349 350 349 349
295 301 303 303 303 303 296 304 304 307 308 301 311 298 309 316 319 322 324 325 327 329 332 332 332 334 337 339 342 344 345 347 348 350 347 346 344 343 343 342 347 347 347 346
296 298 300 301 303 305 302 305 304 307 304 303 306 300 304 315 313 318 322 324 327 329 330 331 333 335 337 340 341 343 344 344 348 349 349 346 342 342 334 336 341 340 339 337
300 302 302 302 306 308 306 300 298 298 299 294 302 303 300 308 315 319 322 326 328 329 331 333 334 336 337 340 342 343 343 344 347 348 348 346 343 335 332 333 336 333 332 332
296 298 301 304 300 302 299 295 289 289 291 292 299 301 305 310 319 320 321 325 329 331 332 332 332 334 337 338 341 343 344 343 347 348 348 347 343 334 332 333 333 328 327 331
290 290 299 302 301 298 297 296 290 286 287 294 300 299 306 316 317 321 322 326 327 330 332 333 333 335 337 339 341 343 344 344 347 349 348 347 341 333 333 332 330 329 329 332
289 291 300 302 303 303 296 293 297 290 287 289 293 298 305 309 311 316 320 322 324 329 332 334 335 336 337 339 341 343 345 346 346 347 347 340 336 330 330 331 330 329 329 331
295 289 297 301 302 301 300 300 293 289 286 285 291 293 297 303 308 311 316 319 322 327 331 333 336 337 338 340 342 344 346 346 346 346 343 339 333 330 329 329 329 327 327 330
295 291 293 298 297 297 296 294 292 292 290 287 286 291 300 304 308 311 314 320 321 324 329 331 336 339 340 340 342 344 346 347 346 343 339 335 330 329 329 330 330 328 327 328
296 294 291 293 298 301 301 297 295 293 288 289 290 292 304 307 308 314 315 319 318 323 328 331 336 338 339 339 341 343 345 346 348 345 337 333 330 331 330 330 330 329 328 328
297 290 290 290 292 296 295 296 293 292 291 289 291 293 305 307 310 314 314 316 318 322 325 329 332 335 337 337 340 342 345 346 348 345 335 332 330 331 331 331 330 329 328 328
311 290 293 292 294 296 295 298 297 295 290 291 293 297 302 308 310 313 316 316 316 320 324 327 329 332 334 335 338 341 344 346 346 342 336 333 331 332 332 332 330 330 329 328
295 293 294 299 297 298 298 298 298 296 296 295 298 297 303 308 310 312 317 318 318 317 320 324 328 329 331 332 335 339 342 344 345 339 337 335 334 334 333 332 332 331 329 329
296 292 291 296 298 298 297 299 300 300 299 299 299 299 304 310 312 313 315 317 317 318 319 321 326 328 329 331 331 337 340 342 345 341 338 338 336 335 334 334 333 330 329 328
297 292 289 292 294 294 291 298 298 300 300 301 297 303 305 308 311 312 313 316 318 318 320 319 321 324 326 328 331 335 339 343 344 342 341 339 336 333 331 332 333 330 328 328
303 293 290 293 291 286 297 302 303 303 306 306 306 305 307 310 313 314 314 315 316 318 320 320 320 323 325 327 330 335 338 341 343 342 342 338 335 333 331 330 329 331 328 327
305 294 291 289 288 293 303 306 306 306 304 310 309 312 312 312 313 312 314 318 317 320 322 325 325 325 326 329 332 334 337 340 342 341 340 337 336 334 333 332 329 330 329 329
305 303 296 291 289 290 299 308 313 310 300 310 311 310 309 310 304 307 313 316 315 318 321 324 328 329 331 331 335 334 335 338 339 340 339 338 338 334 330 332 331 330 331 330
301 302 298 295 293 297 307 309 313 300 299 310 311 312 311 308 311 314 318 318 320 322 325 328 330 332 332 334 335 333 333 335 338 338 339 339 338 336 333 330 329 328 330 330
301 300 299 298 296 293 309 310 303 308 309 311 313 312 312 313 315 317 319 319 321 322 324 326 327 331 335 334 335 332 332 334 335 335 333 332 332 333 329 326 326 327 326 324
301 305 300 300 299 307 310 307 310 312 312 312 311 313 316 316 317 320 320 321 323 325 326 330 331 331 332 332 334 330 329 332 332 328 327 328 328 328 328 326 325 325 325 324
309 309 305 304 306 307 307 309 310 311 310 311 313 314 317 317 321 321 324 324 323 325 326 328 328 326 326 328 329 329 331 330 328 326 327 328 327 325 325 326 327 325 323 323
306 309 305 303 307 309 308 310 311 310 310 310 310 312 312 312 312 313 316 323 323 323 325 326 325 325 327 328 327 330 329 328 327 326 325 325 324 326 325 324 320 322 317 318
303 304 302 299 307 306 305 310 314 309 309 310 309 308 309 310 310 312 310 319 322 323 325 323 323 325 325 326 326 328 330 330 329 326 324 323 324 325 324 313 309 301 299 299

GFSCGP_sfc_thetae_009.txt.gz
Theta_e
308 304 302 307 313 315 316 316 315 318 322 321 320 321 326 331 332 332 335 337 338 339 344 348 350 352 353 355 356 358 358 361 362 359 359 359 356 360 359 364 362 361 361 360
304 301 307 310 311 312 316 315 315 317 321 321 319 319 325 330 330 332 333 335 337 339 342 346 348 349 350 353 355 357 359 362 363 360 361 360 360 360 360 361 362 362 360 361
301 304 307 308 308 308 313 314 315 314 318 320 320 316 320 328 331 332 333 335 336 337 339 342 344 347 349 350 353 356 360 362 363 364 362 361 361 361 358 358 358 359 360 360
304 306 305 306 307 310 307 315 317 315 314 309 319 306 317 323 326 329 331 332 334 336 338 340 342 344 347 349 352 356 359 361 362 364 360 360 355 353 355 356 357 358 360 358
303 302 303 304 307 311 310 314 313 315 314 312 313 309 313 321 321 326 330 332 334 336 337 338 341 343 346 349 350 353 358 361 362 363 363 358 358 357 357 354 356 360 359 358
307 307 307 307 311 312 311 310 310 312 311 303 309 310 308 316 320 324 329 331 333 335 337 339 342 344 345 348 349 351 356 359 359 360 361 360 359 358 353 350 348 351 353 351
305 305 307 308 307 312 310 308 300 300 300 299 308 310 311 319 324 326 327 330 332 335 336 337 340 341 343 346 348 350 355 356 355 357 359 359 359 360 356 353 348 348 349 347
300 297 305 308 307 306 307 308 302 296 297 300 307 304 310 321 324 327 329 331 332 334 335 337 340 343 344 345 348 350 353 355 355 355 359 361 361 358 355 354 348 347 348 346
299 299 305 307 309 311 306 303 311 305 300 301 305 310 313 318 320 322 325 329 331 333 336 337 340 342 345 347 350 352 354 355 355 355 360 359 360 359 355 353 349 348 349 343
304 298 304 306 309 308 308 310 302 303 298 296 301 303 305 315 318 322 323 327 330 334 337 338 341 342 346 347 349 352 354 355 356 355 357 357 358 358 357 352 346 346 346 344
308 303 301 304 303 303 304 303 304 306 303 299 297 301 315 318 324 322 323 327 330 333 337 340 342 344 346 347 349 350 351 354 354 355 358 358 356 354 355 350 343 342 344 343
307 304 300 301 306 307 308 306 307 302 301 302 302 303 315 317 320 322 324 326 329 335 338 339 341 343 344 346 346 348 349 350 355 357 357 355 354 353 346 348 342 345 335 342
305 301 297 299 304 306 303 305 307 307 307 305 299 302 316 316 317 320 322 327 329 332 335 338 340 343 344 345 348 348 350 350 352 356 354 353 349 347 350 340 340 340 340 341
313 307 303 298 301 305 301 303 305 305 301 302 303 306 312 316 318 322 324 327 329 330 335 337 339 344 347 349 350 351 350 351 352 352 353 351 349 350 342 340 343 340 337 339
312 304 305 306 308 306 304 302 303 303 305 303 305 306 312 320 322 325 327 329 327 328 332 336 338 344 348 349 350 351 350 354 354 355 353 351 349 348 349 343 336 333 334 335
307 306 302 301 306 305 302 304 304 305 305 306 307 308 316 321 323 324 325 328 327 328 330 334 338 340 342 345 346 347 350 352 355 354 352 352 351 347 346 341 338 333 332 332
313 306 305 301 303 302 299 304 305 306 308 307 304 311 319 316 319 322 326 328 330 330 331 333 337 340 341 342 344 344 347 350 352 353 352 351 350 346 344 341 340 337 334 332
313 310 303 302 301 292 303 309 309 307 308 311 311 314 319 321 325 324 326 329 331 333 334 334 333 337 341 341 342 345 347 350 352 352 352 351 349 346 343 342 341 338 334 338
315 307 301 298 298 303 305 309 306 305 306 312 312 316 317 318 321 321 323 325 328 330 332 334 335 336 339 339 342 344 346 348 349 350 351 351 348 345 343 342 338 341 337 335
312 312 306 303 297 295 307 313 316 315 304 317 318 319 319 318 312 320 323 324 328 331 334 336 337 338 339 341 342 343 344 346 347 349 351 352 349 346 343 341 337 339 338 335
307 306 303 304 301 303 311 313 316 304 309 318 319 320 319 318 321 323 327 330 333 334 336 340 342 342 343 344 346 346 346 346 350 352 352 349 347 346 345 339 339 338 337 332
305 303 301 304 302 299 312 313 310 315 319 320 320 321 320 322 324 326 328 329 332 332 333 337 339 341 345 346 347 346 345 346 350 350 348 344 345 340 337 335 336 339 337 331
303 307 304 306 305 312 313 312 317 322 320 321 323 323 324 324 326 328 329 331 333 335 336 339 340 340 342 345 347 344 344 345 346 346 342 341 342 339 336 335 333 331 331 331
311 314 308 307 309 309 312 313 315 316 316 319 323 321 322 322 327 330 332 332 333 335 336 338 339 338 338 341 342 342 340 344 343 341 340 341 340 337 337 335 335 335 332 329
308 309 308 308 308 310 311 313 314 315 315 315 317 318 317 318 319 326 329 331 333 334 335 337 338 338 337 340 340 341 342 341 339 339 338 336 335 336 334 327 326 330 331 322
305 305 306 305 311 312 311 313 312 310 311 314 314 314 316 318 318 319 321 327 327 330 335 336 337 337 336 338 338 339 341 340 338 335 333 332 330 330 330 324 317 299 300 299

GFSCGP_sfc_thetae_012.txt.gz
Theta_e
312 308 306 311 315 316 316 316 315 319 326 324 322 322 327 334 334 334 337 337 337 338 342 347 351 352 354 357 359 361 361 364 367 357 355 356 354 357 358 360 364 364 363 363
308 304 311 313 314 314 315 314 315 319 325 324 322 322 326 331 334 334 336 338 339 339 341 346 349 351 352 355 359 361 363 365 366 360 366 360 359 357 359 360 364 364 363 364
306 308 311 311 311 312 315 314 315 317 322 325 321 320 323 327 332 335 336 338 341 340 340 343 346 349 351 353 358 361 364 366 367 367 364 364 364 363 358 358 359 362 364 364
308 311 308 308 308 313 311 317 317 317 317 312 322 310 318 323 327 331 335 336 336 340 343 344 345 347 350 352 357 362 364 366 367 369 368 366 356 350 350 353 353 355 361 361
307 307 306 306 308 312 312 318 317 317 316 316 317 313 316 322 322 327 333 336 336 337 340 342 344 346 350 352 355 359 364 366 368 368 370 362 361 354 353 353 356 358 360 358
310 313 310 309 311 313 316 315 316 316 314 308 314 313 312 316 322 324 330 334 337 335 337 341 344 346 348 351 353 356 363 368 367 367 367 366 363 359 352 354 351 348 350 353
308 308 310 310 308 312 313 312 305 304 304 304 315 312 314 319 322 324 325 332 337 337 337 338 341 343 347 349 352 354 360 363 365 365 365 366 365 364 361 359 352 350 346 346
303 300 308 310 309 308 310 312 306 300 301 305 313 308 313 322 324 325 328 330 336 337 336 337 341 343 346 348 351 354 357 363 363 363 364 368 367 361 360 361 350 347 344 345
304 303 311 310 311 312 309 308 315 309 310 306 309 313 318 321 322 325 326 330 333 336 335 337 340 343 346 348 353 358 362 361 361 361 364 366 366 365 361 363 360 352 353 346
310 303 310 310 311 312 311 315 307 309 302 300 305 308 310 316 318 321 325 328 332 336 338 336 340 342 346 349 351 354 357 360 360 360 361 361 363 365 365 363 360 358 353 352
313 307 306 309 306 306 308 308 310 311 308 303 302 306 318 317 320 320 323 329 331 335 338 339 339 342 346 348 350 352 354 357 358 359 363 362 361 362 364 363 361 359 355 353
314 310 303 303 309 311 311 309 311 305 306 308 307 307 319 321 321 321 322 324 329 335 339 341 342 343 345 347 348 350 352 353 356 362 364 361 362 362 361 364 361 360 355 351
313 308 302 303 306 309 306 309 310 311 312 309 304 306 319 320 322 324 325 328 331 335 339 342 343 344 345 346 350 350 352 352 353 359 357 358 360 360 362 362 361 352 352 347
313 309 305 301 305 308 304 305 308 308 306 307 307 311 315 317 319 321 323 328 330 336 339 341 343 345 347 351 356 356 352 353 353 354 356 360 360 360 359 361 356 349 343 344
310 308 310 309 309 309 307 306 306 305 307 305 309 310 315 318 320 321 323 325 330 335 337 340 342 350 354 355 358 357 354 356 357 357 356 359 362 361 359 361 355 349 345 344
313 309 312 308 310 310 307 309 308 307 307 307 308 309 317 320 322 321 322 324 327 335 337 340 344 347 350 352 354 354 355 355 358 359 357 362 364 362 359 361 353 348 342 343
311 310 310 305 309 309 304 309 310 310 309 308 305 311 316 317 318 321 322 326 329 335 338 340 342 346 350 351 354 353 356 357 357 358 359 360 363 360 358 358 352 347 345 342
313 313 311 306 309 299 309 315 314 312 311 311 311 314 316 319 321 324 327 326 328 336 338 341 342 346 350 351 352 353 355 357 357 358 359 360 361 358 355 352 349 348 344 340
315 313 308 304 302 307 310 315 312 310 309 314 313 315 316 319 322 325 332 332 334 338 342 343 344 347 350 349 351 352 351 354 354 355 357 358 358 356 353 349 344 344 343 339
315 316 310 307 301 299 311 315 319 319 308 316 316 315 317 318 314 318 333 331 332 337 342 343 343 345 347 348 349 349 349 351 352 354 356 359 359 357 351 350 348 343 339 337
310 311 306 307 304 307 315 315 320 307 309 322 318 318 318 317 323 331 334 334 337 339 341 343 344 344 347 348 347 348 349 349 353 355 357 359 359 356 352 352 347 342 337 337
308 307 305 307 305 302 315 316 312 319 326 326 326 325 326 329 331 333 336 337 340 342 343 344 344 345 348 350 351 351 352 355 358 358 357 358 354 350 348 343 341 339 339 342
307 311 308 310 310 316 318 314 319 324 326 327 328 329 330 330 331 333 334 335 336 337 337 340 342 346 349 351 352 352 356 356 357 356 355 348 349 346 344 338 337 336 339 336
314 318 313 313 314 315 316 318 319 322 325 328 330 330 331 329 331 333 335 337 337 338 338 340 341 343 346 351 353 354 354 354 354 349 344 344 340 338 339 337 337 337 337 335
313 316 314 313 314 313 314 317 318 319 322 322 324 326 330 333 334 334 335 338 338 339 341 341 341 344 346 349 351 350 351 351 349 345 344 343 340 342 339 321 322 336 334 322
307 310 313 310 313 315 312 312 314 315 316 318 319 318 322 323 323 324 326 329 333 339 342 343 343 344 346 347 349 350 351 351 348 343 343 341 341 340 338 334 330 299 302 300

GFSCGP_sfc_thetae_015.txt.gz
Theta_e
314 309 307 311 315 316 317 316 314 319 323 322 322 322 326 332 332 330 332 333 334 336 342 345 348 349 350 353 356 359 362 370 363 358 361 356 355 357 356 356 363 366 364 365
310 306 312 315 316 315 315 315 315 319 321 322 322 321 327 331 331 333 333 333 334 335 338 342 346 348 350 352 358 363 366 371 368 361 363 360 358 355 355 356 364 363 363 366
308 309 313 313 314 313 315 314 315 316 322 324 321 318 322 327 332 334 334 337 336 335 335 340 343 347 349 352 357 364 370 372 371 371 366 365 368 360 356 354 358 361 362 362
310 313 310 310 310 314 311 317 317 316 315 313 320 310 320 323 326 330 334 335 336 336 337 338 343 346 348 352 356 365 370 373 371 373 366 368 356 350 349 352 352 356 360 358
309 310 309 308 310 314 312 318 317 317 317 317 315 312 316 322 321 325 331 335 337 337 338 338 341 345 348 351 353 360 371 373 374 374 370 361 362 352 351 350 362 364 364 357
312 316 312 311 313 315 316 315 317 316 315 308 315 312 315 317 322 325 328 333 337 338 338 341 343 345 347 350 352 359 370 373 374 374 372 372 371 361 352 355 352 349 350 352
310 310 314 313 309 313 313 311 305 305 305 305 316 313 317 323 324 325 325 329 335 339 339 338 342 342 347 351 355 359 367 371 373 369 370 369 371 371 366 362 352 354 347 348
305 302 310 313 310 308 310 310 305 301 303 306 314 309 314 325 326 326 327 328 332 337 339 337 340 344 348 350 357 359 364 369 372 370 372 374 374 360 358 362 354 348 347 349
307 306 313 313 313 311 309 307 314 309 311 307 310 315 320 324 324 325 325 326 327 335 339 338 339 341 346 349 356 359 364 368 370 364 373 373 373 371 360 366 366 355 358 349
311 306 312 312 313 312 309 313 307 311 304 303 307 310 311 318 320 323 324 324 327 333 338 339 338 340 345 347 352 358 363 366 366 367 369 368 370 373 372 372 370 363 361 359
312 310 309 313 309 307 307 307 311 311 310 304 303 309 320 321 323 322 324 325 327 331 337 339 339 340 343 345 348 353 357 362 364 366 367 367 366 368 371 370 369 368 360 362
313 310 306 308 313 314 311 308 309 307 307 309 309 309 321 322 323 323 324 326 328 331 336 339 340 341 342 344 344 347 351 351 359 363 367 367 368 368 366 369 370 370 365 361
314 308 304 306 309 312 308 310 310 310 312 311 306 308 321 323 323 325 324 325 328 330 333 338 340 340 342 343 347 345 350 348 351 360 361 365 365 367 366 369 369 369 366 363
316 311 307 304 307 310 306 307 309 309 306 308 308 312 317 320 321 323 324 327 327 329 337 337 340 344 346 348 351 351 349 348 350 353 354 360 364 365 366 370 369 369 368 361
312 307 310 310 311 311 308 306 307 306 309 307 310 311 317 320 322 323 324 326 326 327 334 339 341 350 354 353 355 356 354 355 353 356 355 359 365 367 368 368 370 369 365 359
312 307 310 308 310 310 308 310 309 308 308 308 310 310 319 321 325 324 324 325 325 326 328 339 342 346 355 355 358 359 359 359 359 362 360 363 368 368 367 369 369 368 364 359
310 309 307 304 310 310 304 309 310 311 312 310 306 311 317 318 321 323 325 325 325 326 329 334 341 345 351 353 361 359 363 362 363 365 369 368 371 370 370 370 369 365 363 356
309 310 309 305 308 299 311 317 314 311 313 315 314 315 316 321 323 325 325 325 327 330 332 334 340 346 353 353 353 359 359 366 366 368 367 371 371 372 371 368 366 362 356 349
314 310 306 303 303 308 311 314 315 314 314 317 315 318 318 318 318 321 325 328 329 329 332 334 343 346 357 356 361 361 359 363 364 365 367 369 370 369 368 364 361 355 351 347
313 315 310 307 302 300 311 318 321 320 309 318 320 321 318 318 310 317 325 325 328 334 334 337 345 348 354 358 355 358 355 357 359 362 363 367 368 367 364 361 357 356 353 346
304 307 304 305 304 308 317 319 321 308 311 327 327 327 325 320 319 324 331 329 331 335 337 347 348 353 357 357 354 358 357 355 357 358 359 362 365 365 365 362 356 353 350 345
304 305 304 307 303 300 320 320 313 321 327 328 329 329 328 330 323 331 335 336 337 338 342 346 348 350 354 357 358 360 358 361 363 363 362 363 365 359 357 356 353 349 344 338
305 310 307 309 309 322 323 323 325 326 328 329 330 331 331 329 333 336 338 340 342 344 344 346 347 350 353 358 358 359 366 367 365 362 364 363 359 355 354 351 346 342 340 336
311 318 313 316 319 319 321 324 326 328 327 332 334 332 332 333 335 336 337 339 340 343 345 346 347 348 354 360 359 360 360 361 360 360 354 352 349 346 347 346 343 339 337 337
307 313 318 317 319 320 321 322 324 325 327 328 330 329 332 334 334 335 337 338 338 339 340 343 345 346 349 353 354 355 357 358 354 348 345 344 343 344 338 330 332 339 328 328
308 308 311 311 320 320 317 320 322 320 320 322 324 323 325 329 328 331 333 339 339 339 341 341 344 346 349 351 352 354 357 354 349 346 344 343 342 338 335 330 327 301 303 299

GFSCGP_sfc_thetae_018.txt.gz
Theta_e
316 309 306 310 311 313 313 314 313 317 322 319 322 319 320 326 328 327 328 329 332 334 340 343 345 346 348 353 357 359 361 367 367 364 357 360 358 363 362 366 364 362 369 370
310 306 311 313 314 312 313 312 313 318 322 321 320 321 324 328 328 328 328 328 329 332 336 341 344 345 347 352 355 360 361 369 366 364 364 362 360 359 361 353 365 366 365 368
307 309 312 311 311 310 311 311 313 313 319 321 319 316 321 326 329 330 331 332 331 332 332 339 343 344 348 351 356 360 363 366 364 368 364 366 366 360 359 360 363 360 367 366
310 313 310 308 309 312 308 315 315 314 315 310 319 308 320 322 326 328 330 332 333 333 335 338 342 345 347 351 357 362 364 365 367 366 363 362 355 355 360 363 361 364 364 364
308 310 308 307 308 313 311 316 315 314 313 315 316 311 318 323 322 326 329 331 333 337 336 336 340 345 347 352 355 361 365 367 366 368 364 362 360 357 357 356 365 362 368 363
311 315 312 310 312 312 315 314 314 314 312 306 313 312 313 318 319 322 328 332 334 336 338 338 341 345 347 351 355 357 365 366 366 367 365 366 359 356 356 361 357 359 357 358
310 310 313 314 309 311 311 308 303 303 304 303 314 312 315 322 325 325 324 330 335 338 339 339 339 342 346 349 353 358 363 364 366 367 366 364 367 363 365 368 358 354 348 352
303 302 309 313 310 308 308 307 304 298 301 304 313 308 315 326 327 326 329 331 333 336 338 339 341 342 346 348 353 356 362 363 366 364 367 367 367 366 361 365 360 357 354 354
304 304 314 313 314 311 308 304 311 305 308 305 309 313 318 323 325 325 325 328 328 335 338 339 342 344 347 348 350 355 361 364 366 366 366 368 366 365 363 364 364 359 359 362
310 304 312 313 314 313 309 312 303 305 299 300 306 309 311 319 322 325 324 326 327 330 338 340 340 344 347 350 351 356 360 363 366 366 366 366 366 365 364 364 364 358 361 359
310 309 308 312 309 307 307 305 306 307 306 302 302 307 321 323 326 326 326 327 327 329 336 338 341 341 347 349 351 353 356 362 365 365 365 366 366 367 365 366 363 361 363 358
312 308 305 307 314 314 311 307 307 302 303 306 306 309 321 324 324 327 327 328 329 331 334 338 341 341 342 345 348 352 355 358 362 364 364 365 366 366 366 363 366 365 361 363
314 307 303 304 309 313 309 309 309 308 308 305 303 307 321 324 322 326 327 328 331 335 338 338 340 340 341 343 346 349 353 355 360 362 361 363 362 364 363 366 363 367 363 359
316 309 306 302 306 310 307 308 309 307 302 304 307 311 316 321 323 323 326 327 331 338 343 339 339 342 342 344 346 347 350 352 355 359 359 359 361 361 361 364 366 365 364 360
312 307 309 308 309 311 310 308 308 307 308 305 308 310 317 320 325 325 329 328 330 335 336 342 343 347 345 346 347 347 348 349 351 354 356 358 361 362 363 362 365 365 365 362
311 307 309 307 310 309 308 310 309 308 308 308 309 309 317 322 325 328 322 325 329 332 335 341 344 352 353 348 348 347 347 349 350 350 353 357 359 362 361 364 362 365 364 363
310 307 307 302 308 308 304 309 310 309 310 308 305 312 319 318 320 325 328 327 329 330 332 340 344 346 350 355 352 348 348 352 350 353 354 355 358 360 361 362 363 363 363 363
311 308 307 304 306 297 309 315 313 311 312 313 313 315 317 318 321 322 325 327 328 331 332 338 334 346 351 349 353 355 353 353 355 354 357 358 359 360 362 362 362 363 363 362
311 309 305 302 301 305 308 312 312 310 311 316 315 319 319 320 320 320 323 325 327 330 339 338 333 337 352 351 356 356 357 355 356 358 361 362 366 364 363 363 363 364 364 361
308 314 307 305 300 298 310 315 321 319 308 321 323 322 322 323 315 320 324 325 325 327 329 335 339 343 353 355 356 357 355 358 355 358 363 367 370 370 367 367 366 366 360 353
304 306 303 303 301 304 317 319 321 307 311 325 326 326 325 322 327 334 334 329 340 332 329 335 353 350 354 359 357 357 356 358 361 363 368 368 370 370 370 369 364 355 351 349
302 301 302 306 302 300 321 318 310 322 327 325 327 327 328 331 331 333 334 336 338 341 334 342 357 359 361 360 363 360 360 365 367 368 366 367 369 364 365 363 357 351 348 344
300 306 303 307 307 326 325 325 327 328 328 331 332 331 329 328 330 332 338 339 338 344 347 348 354 359 363 365 367 361 367 364 364 363 363 365 365 362 357 353 349 347 344 340
310 314 309 310 318 321 324 326 329 330 331 332 334 336 336 332 335 336 339 341 345 347 348 353 353 354 358 363 364 363 362 364 363 363 362 357 354 351 351 348 347 342 339 337
310 311 313 316 321 321 323 325 327 328 329 328 330 329 330 330 330 337 339 342 345 348 350 353 353 354 359 362 361 362 363 364 358 355 351 347 344 344 332 321 325 340 329 334
306 309 310 313 314 318 321 323 324 322 323 325 324 323 326 324 322 327 329 336 341 343 346 344 344 347 352 355 356 360 361 356 351 346 344 343 339 338 336 330 323 302 303 300

GFSCGP_sfc_thetae_021.txt.gz
Theta_e
308 302 301 302 304 306 306 305 305 310 317 317 317 316 319 319 320 320 326 327 329 331 334 338 339 342 345 350 348 350 350 353 353 353 353 351 347 353 350 352 355 355 356 356
303 301 307 309 308 306 306 304 304 310 318 317 318 316 319 318 319 321 324 326 328 330 332 336 338 339 343 347 348 348 350 357 354 354 351 351 350 352 352 353 357 358 356 356
302 305 311 308 307 305 304 303 304 306 315 318 318 313 315 317 321 324 325 327 329 329 330 334 336 337 340 345 348 349 350 356 356 354 354 353 352 352 348 351 353 356 357 358
304 309 308 306 304 306 301 309 309 308 308 305 317 305 313 315 320 323 323 324 326 329 332 334 336 337 339 345 350 350 352 357 354 356 351 348 345 344 348 352 352 357 357 356
303 306 305 304 304 306 304 310 309 309 306 309 310 304 311 318 317 320 322 325 325 327 330 333 336 338 341 346 348 353 353 354 355 355 352 351 347 347 350 346 349 354 352 353
305 310 308 307 309 308 309 307 307 307 305 299 306 307 305 313 317 320 324 326 327 327 329 333 337 339 339 346 349 354 353 353 357 352 354 353 349 348 346 346 350 351 351 348
305 306 308 311 304 306 305 297 295 294 296 294 305 305 308 317 320 324 325 326 329 330 329 329 334 337 339 344 349 353 353 353 356 356 354 354 352 348 345 349 349 347 344 343
297 296 306 309 306 301 301 300 295 289 292 296 303 301 308 320 322 327 328 326 329 330 331 330 334 336 339 342 347 353 354 353 357 357 357 355 356 352 351 352 347 344 344 345
297 298 309 310 310 307 300 298 302 293 296 294 299 303 310 319 320 322 322 324 326 326 332 332 333 336 339 341 347 348 355 355 356 358 358 356 355 357 356 351 353 346 342 347
301 296 306 310 310 309 304 303 295 298 289 290 297 299 302 308 316 319 319 321 324 325 331 333 333 335 339 342 346 350 356 355 357 355 359 360 358 356 356 353 351 349 344 349
305 301 301 306 304 302 302 300 298 296 297 292 292 298 306 311 319 319 320 322 321 327 329 333 335 336 340 342 345 349 354 355 357 358 356 359 360 358 357 355 352 350 349 347
306 301 297 300 307 310 306 301 298 295 290 294 295 297 310 311 319 322 321 322 321 322 332 334 335 336 340 341 342 348 355 356 358 360 358 356 358 359 356 354 355 354 349 349
307 301 294 297 302 306 304 305 302 301 295 293 292 297 310 311 317 320 321 323 323 323 329 333 334 337 339 341 342 346 352 356 358 359 359 358 357 358 358 355 356 357 352 351
313 304 299 295 298 301 301 304 305 301 296 296 297 298 303 310 315 316 320 321 323 325 326 330 333 335 338 341 343 344 348 355 357 359 358 357 357 358 358 359 356 356 357 352
301 300 302 303 304 305 304 305 305 301 301 297 298 299 303 306 316 317 320 320 321 323 329 328 332 333 336 338 341 344 346 349 355 356 356 355 357 358 359 358 359 356 356 354
299 299 302 301 305 304 302 306 307 305 304 303 303 302 305 309 319 319 319 320 317 320 329 331 332 333 334 336 338 341 345 347 349 353 354 355 355 356 355 356 356 359 355 356
296 295 297 294 302 302 298 303 305 306 307 305 300 304 307 308 312 318 320 318 317 320 329 330 331 337 335 337 339 340 343 347 347 348 352 353 353 353 354 355 355 356 357 357
297 296 299 295 298 292 301 309 310 308 309 308 306 307 309 310 311 315 315 314 314 323 326 333 335 335 342 340 340 341 342 344 345 345 348 351 352 352 354 354 355 355 357 356
303 298 296 293 295 298 303 306 306 305 305 311 312 313 316 318 310 308 316 317 316 315 319 322 333 337 339 344 343 341 341 342 342 342 344 348 350 351 352 353 353 355 355 356
302 302 299 294 292 291 299 309 313 315 303 319 320 319 318 318 308 312 324 324 323 321 320 321 325 331 341 339 346 342 340 341 341 342 346 348 350 350 352 354 354 356 356 355
297 301 298 296 293 297 306 310 317 302 304 320 321 320 320 316 318 322 326 324 325 326 320 321 323 329 340 341 347 345 342 341 345 348 349 351 354 353 356 355 357 356 352 346
298 293 296 298 294 292 316 314 308 311 319 323 321 321 318 319 322 322 324 325 324 327 329 324 322 335 342 345 348 347 347 348 348 357 355 361 361 362 362 358 354 350 347 344
296 301 300 303 306 315 321 320 321 327 326 327 329 330 330 329 329 332 336 333 336 336 339 347 348 349 349 349 351 348 354 357 358 357 358 358 357 359 355 351 346 344 343 340
304 310 305 306 311 315 319 321 327 326 325 325 328 329 329 324 326 327 331 336 341 344 343 346 348 350 351 355 356 356 356 357 356 355 354 351 350 348 348 346 344 341 338 336
304 307 306 307 313 314 321 324 324 324 324 323 323 323 323 323 323 324 325 331 337 340 344 348 351 350 350 353 354 354 355 357 351 349 346 344 342 334 323 313 323 336 325 331
306 306 304 305 309 310 312 319 322 320 320 320 318 318 319 318 317 319 321 325 329 337 339 339 344 346 349 352 350 350 351 349 344 340 340 336 335 330 326 322 316 302 302 301

GFSCGP_sfc_thetae_024.txt.gz
Theta_e
304 301 300 300 301 302 302 300 300 304 309 314 314 314 316 327 328 328 329 330 331 332 336 335 342 343 342 345 347 347 348 348 349 350 349 347 344 348 348 349 348 349 353 354
299 297 302 306 304 303 302 300 300 304 308 313 313 314 316 321 324 327 327 328 330 332 333 335 337 341 342 346 347 347 347 347 347 350 350 348 347 348 349 349 352 350 354 354
297 300 307 306 304 301 300 299 300 300 306 317 313 309 313 318 317 323 327 329 330 330 330 333 334 338 341 345 345 346 348 349 348 349 350 348 349 348 347 348 351 355 354 354
300 306 305 304 303 303 295 304 304 303 300 299 312 299 310 315 313 317 322 325 328 329 331 333 334 335 340 343 346 347 349 350 350 351 351 348 346 343 344 346 349 352 355 354
300 303 303 302 304 306 300 305 304 304 300 297 302 301 306 315 313 314 318 324 327 329 331 331 334 336 339 343 345 346 349 353 353 351 350 349 344 344 344 346 348 349 352 352
303 308 306 305 307 307 307 301 301 300 300 293 299 304 302 308 314 315 320 322 326 328 330 332 335 337 337 342 345 346 346 351 353 351 350 349 346 343 342 343 344 348 350 350
302 303 304 308 301 304 302 293 290 289 291 291 299 301 306 313 318 319 321 323 324 328 329 330 332 334 336 339 343 346 346 347 350 351 349 349 347 345 344 342 346 346 346 342
296 294 303 306 302 301 297 296 291 284 286 291 298 296 305 315 321 323 325 325 325 325 328 330 332 335 335 338 343 346 346 345 350 350 351 350 349 349 348 346 346 349 348 345
291 295 305 308 307 304 298 293 298 290 290 289 294 298 305 312 315 321 323 324 324 325 327 329 332 335 336 338 343 346 347 346 350 350 349 350 352 350 348 347 347 347 346 343
298 291 300 305 306 308 300 300 292 287 287 287 290 294 298 303 310 315 320 323 325 327 327 328 329 334 337 338 344 347 349 348 350 352 352 351 350 353 351 350 348 345 342 344
301 296 296 300 300 300 300 297 291 293 292 289 285 293 301 304 307 312 321 325 326 328 328 329 329 333 336 339 344 347 349 348 351 352 352 353 352 351 353 354 350 348 343 343
300 297 294 297 302 306 305 300 295 293 288 291 295 295 305 306 308 314 318 323 326 328 327 331 331 331 335 338 343 346 351 350 351 354 354 354 354 353 351 352 352 350 346 344
301 293 291 291 295 299 298 302 301 291 290 293 289 292 303 303 306 317 317 319 319 321 322 328 331 331 333 337 340 344 350 351 352 353 353 354 355 354 352 351 352 350 349 345
300 295 294 293 296 297 295 301 301 299 295 294 295 294 298 301 304 309 310 319 320 321 325 328 331 331 334 337 339 344 347 352 353 354 352 351 354 356 355 353 352 352 351 346
294 287 292 296 300 302 301 300 302 298 300 296 299 294 297 300 301 306 310 315 319 319 324 328 330 332 335 337 339 342 347 352 353 353 354 352 353 355 357 355 353 352 354 350
293 288 292 294 301 302 300 302 303 302 302 300 297 295 301 304 304 308 312 318 316 320 322 327 331 333 334 337 338 340 345 351 353 354 353 355 355 354 354 355 355 353 351 354
290 289 289 287 297 300 296 301 301 302 303 302 297 300 303 303 307 310 312 316 315 314 323 326 330 332 335 338 340 339 343 350 352 353 354 354 354 354 354 355 355 355 352 351
292 291 289 288 292 289 299 306 306 302 304 304 303 304 305 307 308 310 315 315 313 317 320 326 330 332 336 338 340 342 343 345 350 351 352 354 354 353 354 354 354 354 356 352
298 294 290 287 289 295 301 303 303 300 301 307 304 305 307 310 308 315 318 313 311 315 318 324 331 333 334 334 338 340 341 343 345 347 350 352 353 351 352 351 352 353 354 354
299 298 294 292 289 288 297 305 310 308 298 316 315 314 313 311 302 307 319 320 318 319 318 316 329 333 335 334 336 337 338 341 342 344 346 351 353 351 350 352 351 353 354 354
297 296 292 292 293 294 301 306 313 300 300 316 317 316 314 313 312 317 320 320 320 320 324 318 315 324 335 340 337 335 337 338 343 345 345 347 351 350 351 351 352 352 353 353
295 295 294 295 293 290 310 312 302 307 317 318 320 316 316 320 329 333 332 327 323 321 324 326 316 314 321 336 339 336 335 339 342 342 342 343 347 349 350 350 352 352 352 350
294 299 298 299 300 307 315 316 323 325 323 323 325 326 328 326 328 331 332 336 339 339 341 342 323 316 319 333 341 339 338 340 339 341 340 344 345 347 351 351 352 351 348 345
303 308 302 303 308 309 310 313 321 322 320 322 323 323 325 324 326 328 332 333 336 339 341 344 344 341 343 341 338 341 343 342 344 344 346 352 353 353 354 353 352 348 344 340
302 306 304 304 308 311 310 311 316 319 319 318 318 318 319 321 320 322 322 324 331 335 338 340 341 345 345 347 349 352 353 348 351 352 353 354 350 347 333 320 331 341 332 336
304 303 301 302 309 305 308 312 319 315 315 315 315 315 317 317 315 317 317 319 323 329 335 334 334 335 339 342 345 352 354 353 349 346 341 337 331 328 325 324 317 307 308 308

GFSCGP_sfc_thetae_030.txt.gz
Theta_e
303 298 296 297 297 298 299 297 297 300 305 310 309 309 320 326 327 328 329 331 332 333 337 339 340 342 343 343 344 345 345 347 347 344 343 344 344 345 348 348 351 352 353 354
296 297 302 303 300 300 299 296 296 300 304 306 305 308 320 325 326 328 330 330 332 333 335 338 339 340 341 341 342 344 345 346 347 347 346 346 346 345 348 350 351 352 353 354
298 298 305 303 299 298 295 297 297 297 301 304 306 304 309 323 325 328 331 332 333 334 334 336 338 338 340 340 342 343 345 346 346 348 347 346 347 347 346 347 349 349 352 354
296 302 303 300 300 299 291 299 301 299 295 292 304 294 304 313 321 324 325 329 332 334 336 336 337 338 338 340 342 344 345 345 346 348 346 346 345 343 345 346 348 349 351 351
296 297 299 299 300 300 298 302 299 299 295 292 295 295 300 309 315 321 325 327 329 331 334 335 334 336 340 341 341 343 344 345 345 346 347 345 345 346 345 346 348 349 352 353
298 301 302 299 302 302 303 299 295 293 292 288 294 295 292 305 312 320 325 328 330 331 332 334 335 335 337 341 340 342 343 344 345 346 347 346 345 343 342 343 345 346 349 351
296 299 299 301 297 299 299 293 286 285 286 288 293 293 298 305 315 319 322 325 329 331 332 333 333 332 336 338 339 340 342 342 345 345 346 346 346 345 344 344 345 345 346 348
292 289 299 301 298 295 294 292 286 282 283 288 292 290 295 305 314 319 322 324 325 328 331 332 333 334 334 338 339 341 342 342 344 344 345 346 347 346 346 345 346 346 347 348
290 292 301 302 301 302 293 293 295 287 286 284 289 293 300 305 306 314 317 320 321 322 328 330 333 334 335 335 339 342 342 343 344 345 345 346 347 347 346 346 346 346 348 349
293 289 297 302 302 301 297 297 290 285 283 281 286 288 294 300 305 308 313 316 320 322 323 328 331 333 334 336 338 341 343 342 344 346 347 347 347 349 348 347 345 346 347 350
292 290 291 298 297 298 294 292 289 292 287 285 282 289 296 301 304 307 310 317 319 320 322 325 329 332 333 335 336 339 342 342 343 347 347 347 348 348 349 346 347 347 348 348
295 286 289 291 296 302 302 297 291 289 286 285 286 291 300 301 305 307 309 312 319 321 323 324 328 330 332 333 335 337 340 341 343 347 348 348 348 348 348 347 347 348 346 347
295 287 284 287 293 294 293 298 294 296 289 290 288 291 304 302 303 305 306 308 313 319 322 324 324 327 330 331 334 335 339 341 343 344 347 347 347 347 347 347 348 348 347 346
296 286 285 285 288 292 290 295 296 296 293 293 293 293 296 300 301 303 306 310 314 317 319 321 323 325 329 331 333 335 338 341 342 343 345 345 347 347 348 349 349 348 349 345
291 286 287 289 293 294 294 294 296 293 297 294 297 297 299 300 300 304 305 309 310 314 317 320 322 324 326 330 333 335 338 341 343 343 343 344 346 348 348 349 350 350 350 348
288 285 287 288 294 294 292 295 297 297 296 295 298 296 299 303 302 303 304 305 306 308 312 317 324 326 325 329 332 335 338 341 343 343 343 346 347 347 347 348 348 349 350 350
285 286 285 283 290 291 289 294 296 296 297 297 294 298 301 300 301 303 304 305 305 307 311 316 320 325 327 328 332 334 338 343 343 343 344 346 347 347 348 349 348 347 347 349
285 285 285 283 286 281 291 298 300 298 300 299 299 301 303 304 307 306 307 308 306 307 309 315 319 323 329 330 331 335 338 342 344 344 344 347 347 347 349 349 349 348 348 347
290 286 283 282 283 289 293 301 303 301 299 302 301 302 303 304 304 305 306 306 308 310 312 314 320 324 327 329 332 334 337 341 344 344 345 347 349 348 349 349 349 350 349 348
289 290 286 283 282 282 292 307 312 311 297 307 307 304 304 302 298 304 308 314 310 313 314 316 320 325 325 329 332 334 335 339 342 346 347 349 349 348 348 349 350 352 351 350
282 285 282 284 284 289 298 308 314 295 297 312 313 314 304 302 307 309 313 318 316 316 320 321 323 326 327 331 334 334 335 337 342 347 349 349 350 350 349 350 350 350 351 351
283 283 282 284 284 282 306 307 304 306 312 315 315 317 317 305 309 316 320 324 326 332 338 333 327 326 319 330 334 334 334 340 344 347 348 349 351 351 351 351 351 351 351 351
284 289 288 288 287 298 308 309 312 313 314 315 315 317 320 315 324 329 331 334 336 338 339 340 341 342 343 333 333 332 332 340 341 342 345 348 350 352 353 351 350 349 351 350
291 294 292 294 298 303 308 312 313 316 315 316 317 318 325 326 328 329 332 332 332 333 337 340 339 336 335 336 335 336 340 344 338 338 340 344 347 348 352 352 351 350 349 348
290 291 291 293 299 306 310 310 311 315 317 316 317 316 316 322 320 324 325 327 329 330 329 330 328 324 322 323 322 323 325 336 338 335 336 339 342 343 348 339 342 350 352 346
291 289 288 289 299 304 306 310 313 315 315 317 316 317 317 319 319 322 321 324 326 324 324 328 331 332 328 324 322 321 326 326 332 339 340 337 339 335 329 330 324 307 313 310

GFSCGP_sfc_thetae_033.txt.gz
Theta_e
309 303 301 303 305 304 303 303 304 307 311 314 315 316 320 330 332 332 333 334 334 336 340 343 345 347 348 350 351 353 353 357 354 351 349 348 346 349 353 357 360 361 361 363
304 300 305 307 305 304 303 301 303 306 309 309 311 314 319 328 331 333 333 334 335 337 338 341 343 346 347 349 351 354 355 358 355 353 353 351 351 351 355 359 361 362 362 364
300 303 307 305 304 302 303 300 302 303 307 309 310 309 314 325 330 333 336 337 337 337 337 340 342 344 347 349 351 354 358 359 358 358 354 353 355 355 354 356 358 360 363 364
303 307 304 303 302 304 299 305 304 303 303 300 310 301 311 317 325 329 332 335 336 338 340 341 342 343 345 349 352 356 357 359 358 361 356 356 349 346 350 355 357 359 363 363
301 303 303 302 303 306 302 306 304 304 303 303 304 302 308 316 319 325 330 333 336 338 340 341 342 346 347 348 349 352 357 359 360 360 359 355 354 351 353 354 360 364 363 363
305 307 307 306 307 308 309 305 305 304 303 296 303 302 305 309 315 322 329 332 335 338 340 342 345 347 347 348 349 350 355 357 359 359 359 359 358 357 352 354 353 354 355 357
303 302 306 308 304 307 306 303 296 294 294 294 305 301 305 313 317 319 325 331 334 337 339 341 343 344 347 349 350 351 354 354 357 357 358 359 358 360 359 357 353 356 353 355
297 295 303 306 305 302 303 302 296 290 292 296 303 299 305 313 316 321 324 329 334 336 337 339 342 345 346 347 350 350 352 353 355 356 356 359 360 356 356 357 353 353 353 356
298 298 305 305 307 307 302 300 305 298 297 296 300 304 309 312 314 318 322 325 329 334 337 339 342 344 345 346 349 350 351 353 355 355 356 357 358 359 357 360 361 355 361 356
303 298 304 305 307 307 304 307 297 299 292 291 297 298 302 310 311 315 318 321 326 330 334 337 340 343 345 345 348 350 351 352 354 355 355 355 356 359 359 361 359 360 360 360
302 300 299 305 302 301 300 300 302 302 299 294 293 297 309 312 317 317 318 321 324 327 330 332 338 342 345 345 346 349 350 352 353 354 355 356 356 357 359 358 360 360 362 361
301 299 298 300 307 308 305 303 303 297 296 298 298 298 310 312 314 317 318 321 324 328 332 332 333 338 340 344 345 346 349 350 352 354 355 356 357 357 357 358 359 361 361 361
301 297 296 298 302 304 303 305 305 304 304 299 295 298 311 310 311 316 317 319 322 325 328 332 332 334 340 342 344 344 347 348 350 354 354 355 355 357 357 358 359 361 361 361
301 297 297 296 299 299 298 301 304 303 299 299 299 302 307 310 311 314 317 319 321 324 329 332 333 337 340 342 344 345 345 348 349 351 353 354 356 356 357 359 359 360 361 361
299 293 295 296 296 297 297 298 299 300 303 300 302 303 307 310 312 315 318 320 321 322 325 331 333 339 342 343 345 345 346 349 350 351 352 354 357 358 358 359 359 360 360 360
297 292 294 292 295 297 296 298 299 300 300 301 303 303 311 313 315 316 317 320 321 319 323 328 334 337 338 342 343 344 346 347 351 351 350 354 357 358 358 358 359 359 359 360
292 292 291 288 294 295 292 297 299 301 303 302 299 305 310 310 312 314 315 319 321 321 323 325 327 333 339 339 343 343 345 348 350 351 352 353 356 356 357 358 359 358 358 359
291 292 293 288 291 285 298 303 303 303 304 305 305 307 310 312 316 319 320 320 321 323 324 327 324 330 339 338 337 344 346 348 349 351 352 354 354 355 356 357 357 358 359 359
294 292 289 286 288 292 295 299 304 305 304 313 309 308 310 312 314 317 319 320 322 324 326 326 326 328 339 340 343 345 346 349 350 351 352 353 352 351 356 355 356 357 357 357
293 293 289 288 284 284 297 303 310 314 299 316 317 317 313 311 307 311 322 320 320 321 324 327 327 330 332 339 340 344 343 347 349 352 353 355 356 355 356 356 357 358 358 357
287 288 285 286 286 290 299 306 315 300 303 318 320 321 321 318 315 321 324 323 324 326 327 327 329 336 339 341 342 344 346 347 351 352 353 357 358 357 358 359 360 360 357 357
287 286 286 287 285 282 302 303 299 311 318 318 320 323 323 324 326 328 325 323 330 335 334 328 333 334 338 342 345 348 350 351 353 354 356 359 360 356 356 359 357 358 358 358
286 291 290 290 290 300 304 306 311 316 315 318 322 324 325 324 325 329 324 337 341 345 345 348 348 344 343 345 348 347 348 351 353 354 356 357 359 359 361 358 356 354 358 355
294 298 293 294 296 299 301 307 309 319 320 323 324 325 324 323 329 329 336 344 346 343 345 348 347 344 342 346 349 350 352 352 352 353 356 357 356 356 360 357 351 353 354 354
293 296 294 293 297 299 302 305 310 314 319 322 322 321 321 329 332 336 340 340 339 337 336 335 334 332 333 336 337 341 348 354 350 350 350 351 353 353 357 359 358 355 359 354
294 293 291 289 299 300 303 308 314 317 317 322 319 321 325 329 330 336 335 335 336 337 339 338 338 337 336 335 335 337 340 345 352 351 347 345 346 349 352 353 342 310 309 313

GFSCGP_sfc_thetae_036.txt.gz
Theta_e
313 308 305 309 312 312 312 311 310 315 318 315 316 317 320 329 332 333 336 338 339 340 343 346 347 348 349 352 353 355 356 360 358 356 353 351 348 350 349 353 358 363 364 367
307 304 309 311 311 309 309 307 309 314 316 314 316 316 321 326 331 334 335 337 339 341 342 344 346 348 348 350 354 357 358 361 361 357 357 352 350 348 349 354 360 366 367 368
305 307 310 308 308 307 307 307 308 309 313 314 313 312 316 322 329 333 336 338 339 340 341 342 344 346 347 349 353 357 361 363 362 364 357 356 353 351 349 354 358 364 366 368
307 310 308 307 306 307 304 310 309 308 308 304 315 305 315 319 322 327 331 336 338 341 343 343 343 345 347 350 354 359 362 364 363 366 360 362 349 346 348 354 358 359 367 366
305 306 306 305 306 309 305 310 308 308 306 307 309 307 312 318 317 322 327 333 338 342 343 343 344 345 347 350 352 357 362 367 369 366 365 357 358 350 351 352 366 369 368 367
308 312 309 309 310 309 310 308 307 308 306 300 307 308 309 314 318 321 327 332 336 340 342 345 347 347 347 350 352 356 363 367 368 366 364 368 365 361 352 357 355 356 358 360
305 307 310 311 307 310 308 306 299 297 298 298 309 307 310 316 320 322 323 328 336 341 342 343 346 347 347 348 351 354 361 364 365 363 364 364 366 366 366 364 357 361 354 354
301 298 306 310 308 307 306 306 300 294 296 299 307 303 309 318 321 322 325 326 333 338 342 342 346 348 350 350 355 356 360 363 365 363 368 370 371 360 359 364 359 358 355 357
303 303 309 310 311 311 307 303 309 302 304 301 305 308 313 317 319 321 322 324 327 336 340 343 345 347 350 352 356 358 362 364 363 361 367 369 369 367 362 367 368 360 367 359
308 303 308 309 311 311 309 311 301 303 296 295 301 304 306 312 315 319 320 323 326 332 338 341 344 346 349 352 355 358 362 363 364 363 363 363 365 369 369 370 369 368 367 368
309 307 306 309 305 305 306 305 306 306 304 298 298 302 314 314 317 318 321 324 327 331 335 339 341 345 347 350 353 354 357 361 362 363 365 365 363 364 366 367 369 370 368 370
309 307 304 305 310 311 310 307 307 301 301 303 303 305 313 315 317 320 321 324 327 330 333 336 339 342 345 347 349 350 353 355 357 362 366 365 365 365 364 367 368 372 370 370
308 304 300 303 307 309 306 308 309 308 308 304 300 304 315 316 316 319 320 323 326 328 331 334 336 337 341 345 349 349 350 352 354 360 358 359 360 362 365 368 368 370 370 371
304 305 304 301 304 307 304 306 308 307 303 304 305 307 311 312 315 316 318 320 322 327 329 331 334 336 338 344 350 354 349 351 353 354 356 360 363 364 365 368 369 369 371 370
303 301 302 306 303 303 306 305 307 306 307 304 307 308 312 314 316 318 319 320 321 323 326 329 334 338 343 345 350 354 351 353 353 358 355 360 364 367 367 367 369 370 370 370
301 299 300 299 302 301 300 304 305 307 308 308 308 309 316 317 318 318 319 320 321 322 323 325 330 339 343 346 348 349 354 353 355 359 359 362 366 367 367 368 369 370 370 370
297 297 297 297 302 300 297 302 304 306 308 308 305 311 315 315 316 317 319 320 321 323 325 327 329 334 339 343 348 348 354 354 357 359 362 364 367 366 368 369 369 369 368 369
296 296 297 295 299 290 304 310 309 306 308 310 310 312 314 316 318 319 321 321 321 322 324 327 328 330 335 338 337 344 349 358 359 360 361 363 365 366 368 368 367 368 369 368
298 296 294 292 293 299 301 303 304 304 306 311 311 313 314 316 316 317 320 322 324 325 327 328 329 330 336 336 338 340 345 351 354 359 360 363 364 361 363 366 367 366 364 366
297 298 294 294 290 290 301 307 309 309 302 314 316 316 319 321 310 314 321 323 325 326 328 328 329 330 332 337 339 342 343 348 354 358 359 363 365 364 363 366 367 368 365 363
291 292 290 290 290 296 304 309 314 300 309 319 320 321 322 321 325 330 333 332 333 332 330 332 334 333 336 340 342 343 345 347 353 355 356 361 365 366 367 369 368 367 365 363
291 289 289 291 289 287 304 303 300 309 313 318 319 319 320 323 325 328 331 334 336 335 330 334 337 335 340 348 348 348 355 355 357 359 357 362 366 359 359 368 368 367 365 364
289 293 292 293 293 303 306 305 310 310 310 312 317 318 322 323 325 328 330 336 338 335 336 342 338 341 345 352 351 351 359 359 359 359 361 362 362 362 365 365 364 360 363 357
296 299 295 295 298 300 303 306 308 309 309 314 316 317 319 321 324 327 334 339 337 342 347 348 349 346 350 354 355 356 359 359 358 358 360 361 361 360 362 360 360 358 356 356
297 299 296 297 300 302 303 305 307 308 309 310 312 317 318 320 324 329 337 341 343 349 351 352 351 349 350 354 356 358 358 358 357 358 358 359 358 359 360 362 359 358 362 353
297 296 293 293 301 301 303 306 308 306 306 313 315 319 321 322 327 333 338 343 346 345 344 343 343 343 342 343 345 348 354 359 356 353 352 351 352 355 356 357 358 317 315 308

GFSCGP_sfc_thetae_039.txt.gz
Theta_e
319 315 312 314 319 318 315 315 314 319 320 319 318 319 322 326 330 332 337 339 339 340 342 344 346 347 347 349 352 358 359 366 360 355 353 352 349 352 351 352 358 361 362 365
315 311 315 315 316 317 316 314 315 318 320 319 318 318 322 325 330 333 335 337 339 341 342 342 345 346 345 348 354 361 363 368 365 359 361 355 356 350 350 351 363 361 364 367
308 311 315 311 312 313 313 312 313 313 318 319 317 315 319 323 329 334 336 338 340 341 341 342 343 345 346 349 356 359 365 368 366 366 362 362 359 355 348 350 353 360 364 366
310 313 310 309 308 311 307 314 314 312 313 309 317 306 316 319 323 328 333 336 337 340 343 344 343 344 345 349 354 363 367 369 368 370 361 362 350 345 346 349 351 358 367 366
309 308 308 307 308 311 308 313 312 312 311 311 312 310 314 319 318 323 328 333 337 340 342 343 344 344 346 349 350 358 368 370 370 369 367 358 357 348 348 349 362 367 373 367
312 314 312 311 312 312 313 310 311 311 309 303 309 309 311 314 319 322 326 329 334 338 341 344 347 347 345 347 349 356 366 369 372 371 369 370 362 359 350 352 352 354 356 362
309 310 312 313 309 312 310 307 300 299 300 300 311 308 312 318 321 323 324 328 331 338 341 343 345 345 346 348 352 356 365 368 371 371 369 368 368 366 370 366 353 358 352 352
303 301 309 312 310 308 308 307 300 295 297 300 309 305 310 320 323 325 327 329 332 334 340 343 345 346 349 350 354 355 362 367 371 370 371 372 372 361 360 364 356 355 353 354
304 304 312 312 313 312 308 305 310 305 307 303 305 309 314 319 320 322 324 327 328 333 339 342 345 347 350 351 355 357 362 367 370 369 371 372 372 370 362 367 369 362 365 357
310 306 311 311 313 312 311 313 303 305 299 299 304 307 307 314 317 321 322 324 327 331 338 342 344 346 351 351 354 358 362 366 369 369 371 371 372 373 371 371 370 367 368 371
311 310 310 313 308 307 307 308 308 308 306 301 301 305 316 317 319 319 322 325 326 328 335 341 344 346 350 352 352 356 359 365 367 370 370 370 371 371 374 370 372 372 372 375
312 309 305 308 312 313 312 309 310 303 304 306 306 307 317 318 319 321 322 325 327 330 334 340 342 345 347 349 352 354 357 357 364 366 370 369 371 370 370 371 372 374 373 374
311 306 303 306 309 312 309 310 311 310 309 306 302 306 317 318 318 322 322 325 328 331 332 336 339 342 343 346 352 352 356 355 357 363 364 368 368 369 369 371 372 374 374 374
308 307 306 303 307 309 306 309 310 310 306 306 307 309 313 315 318 320 323 325 327 328 328 333 336 339 341 346 353 356 353 355 357 359 360 364 368 368 368 370 373 373 375 374
307 304 308 309 310 310 309 308 308 308 309 306 309 310 314 316 318 320 322 324 325 327 328 330 332 337 345 349 356 359 353 357 356 360 361 363 368 371 371 371 372 373 374 374
306 301 307 306 309 308 306 309 309 309 309 310 311 311 318 320 321 320 321 321 321 323 324 328 332 335 339 343 348 354 359 357 358 362 361 365 369 371 371 372 372 374 373 374
301 302 304 301 307 306 301 307 309 310 312 311 308 313 319 318 319 319 320 321 322 323 325 327 328 330 336 341 347 348 357 360 359 361 365 365 368 369 371 373 373 372 372 373
298 300 301 299 303 295 307 314 312 310 312 314 314 316 318 319 321 322 324 323 323 324 326 328 327 330 337 336 336 347 350 363 363 364 362 367 367 369 371 372 372 373 373 372
301 299 297 296 299 303 306 309 310 308 308 314 314 315 317 318 319 319 323 324 324 325 327 329 330 330 339 334 337 340 344 356 362 362 364 364 368 368 370 370 370 372 371 371
299 300 296 298 295 295 305 310 312 313 304 315 316 316 316 318 312 315 325 330 334 335 335 335 332 331 332 336 334 336 336 343 358 361 365 368 370 370 370 371 372 373 372 370
293 295 292 294 294 300 308 312 313 301 310 318 318 319 321 320 325 330 332 332 334 337 339 339 339 335 340 342 338 346 346 345 353 361 365 369 370 371 371 372 374 373 371 367
294 292 292 294 292 291 309 307 305 311 316 316 319 321 320 323 326 328 329 331 334 336 339 340 339 340 342 344 344 353 355 358 365 364 365 367 370 366 365 372 373 374 371 369
291 296 295 296 296 307 309 308 312 312 311 312 314 316 318 319 321 324 327 329 332 338 343 342 337 343 345 348 351 357 365 371 369 367 369 370 371 370 371 370 372 366 369 362
298 302 296 297 301 303 305 308 309 310 310 311 312 314 315 314 317 321 323 328 331 339 343 344 346 346 350 353 356 358 363 365 368 368 370 370 370 368 369 364 363 361 359 359
298 299 298 297 300 303 305 307 308 309 310 310 311 313 311 313 316 321 323 329 333 340 347 351 352 352 352 357 359 359 361 363 359 361 360 362 361 363 365 365 361 360 365 350
299 297 295 295 303 304 305 308 310 309 308 310 310 310 312 318 320 323 325 332 336 344 351 350 351 351 350 352 354 359 363 362 361 358 358 357 357 360 360 360 361 316 321 306

GFSCGP_sfc_thetae_042.txt.gz
Theta_e
318 311 309 312 316 318 317 314 312 318 323 318 317 318 322 325 326 333 332 337 336 337 341 344 345 345 347 351 354 354 357 362 359 356 354 354 351 356 359 361 366 368 369 369
314 309 314 316 317 316 316 313 311 316 321 319 318 316 320 324 326 333 334 337 337 337 339 343 344 344 345 348 353 356 357 362 361 358 358 357 359 355 356 360 366 368 368 371
310 312 316 315 314 312 314 312 312 313 318 319 318 314 318 323 324 329 335 337 338 339 339 340 342 343 345 349 352 356 357 362 362 361 361 363 362 363 357 355 356 362 368 369
313 316 313 312 312 312 309 317 315 314 313 308 317 306 317 318 321 327 331 332 337 340 342 342 343 344 345 348 353 357 359 360 363 364 359 359 351 348 350 354 356 359 363 365
311 312 311 310 311 313 309 314 315 314 311 311 311 308 313 318 317 324 329 332 335 340 341 342 342 344 346 349 352 356 359 361 363 360 364 357 355 352 352 355 357 362 364 368
314 317 313 311 313 312 313 312 312 311 310 303 308 309 311 314 318 321 327 333 335 338 342 344 345 346 346 349 353 355 359 360 363 363 360 364 356 356 349 351 353 357 363 363
312 312 313 313 309 311 310 306 300 299 300 299 309 307 312 318 322 323 326 329 335 338 341 344 345 344 345 347 351 354 359 359 362 363 361 359 364 357 359 363 350 354 355 359
303 302 311 312 309 307 307 305 300 294 297 299 308 304 309 319 322 324 327 329 332 335 339 342 346 346 346 347 350 353 358 359 363 362 363 362 363 361 355 361 355 353 355 357
304 303 313 313 313 312 307 303 309 303 304 301 304 308 313 319 320 322 323 327 329 333 336 341 347 347 347 346 349 351 355 360 362 362 364 364 360 364 359 357 363 362 360 362
308 303 310 312 313 312 310 311 302 304 297 297 301 306 306 313 317 320 322 324 328 332 336 342 345 347 348 348 349 352 356 358 362 364 363 364 364 364 363 361 362 360 366 363
308 307 307 311 308 306 307 306 306 306 304 298 298 304 317 317 318 320 322 325 327 332 335 339 345 348 350 349 349 351 353 359 362 364 365 365 365 364 364 362 363 367 363 372
311 306 302 306 313 313 311 307 309 303 302 305 305 305 317 319 321 322 323 326 328 332 337 340 344 346 349 349 349 350 353 355 361 365 366 364 366 367 365 363 363 365 367 366
306 305 300 303 309 312 308 309 309 310 308 305 302 304 318 320 321 323 323 326 328 332 337 339 342 344 347 350 351 351 352 353 360 364 366 365 365 365 365 365 364 365 364 367
308 304 304 301 306 311 307 307 309 308 304 305 306 308 313 315 317 323 325 328 330 334 336 338 339 344 346 350 352 353 353 354 355 361 363 363 365 366 366 367 367 365 367 364
307 302 306 308 310 311 308 307 308 307 309 305 308 309 313 318 319 322 325 329 330 334 335 339 339 345 347 350 353 354 355 356 356 356 360 361 364 367 367 366 367 369 367 367
305 301 306 305 309 309 308 309 308 309 308 309 310 310 318 321 323 323 325 326 327 330 332 335 337 347 350 356 354 354 355 357 358 358 358 361 363 364 366 366 366 367 368 367
299 300 301 299 307 307 304 309 309 310 311 310 308 315 319 319 320 322 323 324 324 323 328 333 337 343 349 349 359 357 356 357 359 359 361 362 363 364 365 366 366 365 366 367
297 298 300 298 303 295 308 315 313 311 312 313 315 317 321 322 324 325 325 324 327 327 329 337 329 336 343 337 337 350 359 360 358 363 360 364 365 364 366 366 365 366 366 366
300 298 296 296 298 304 307 311 311 309 310 315 316 317 318 320 321 323 324 325 325 329 333 332 334 335 351 346 351 349 351 359 360 358 363 361 366 364 365 365 365 366 366 366
299 301 296 297 295 295 307 312 315 315 305 317 316 316 316 318 311 321 332 332 333 335 339 342 342 342 343 350 345 352 349 354 356 357 359 365 362 365 364 365 366 368 367 366
293 294 293 294 294 301 309 311 314 303 306 318 321 320 318 317 324 329 331 331 334 337 340 343 345 345 347 349 350 353 354 346 355 360 361 362 366 363 366 367 368 368 367 367
293 291 291 294 293 293 308 308 305 313 314 314 316 317 319 322 323 324 325 329 331 334 336 343 344 347 349 350 351 357 356 368 370 363 364 365 368 364 364 368 369 369 368 365
291 296 294 296 297 310 310 308 311 311 311 312 312 313 315 316 316 317 321 327 328 333 336 342 347 347 350 351 361 360 362 373 373 374 372 366 369 368 366 367 367 366 368 365
297 301 296 297 301 303 305 308 309 310 309 310 311 311 312 312 314 314 319 324 327 332 336 339 346 353 358 370 360 368 369 370 373 370 375 370 368 366 367 366 366 364 363 364
296 298 296 297 301 303 305 306 307 308 309 309 311 311 311 312 312 314 319 326 328 334 337 342 348 358 361 364 366 367 370 370 368 370 369 369 365 365 366 364 362 363 366 355
298 295 293 293 301 302 304 307 309 308 308 310 310 311 312 313 315 318 319 324 330 335 338 344 354 355 357 356 360 363 366 370 370 365 362 361 360 363 362 363 360 308 312 307

GFSCGP_sfc_thetae_045.txt.gz
Theta_e
310 303 300 302 306 308 312 311 310 314 321 317 315 313 323 325 329 330 331 331 332 333 336 341 342 341 340 343 345 343 346 348 346 351 348 347 343 345 346 347 356 356 356 357
306 302 307 310 309 308 311 310 311 314 317 316 313 312 317 324 328 329 331 329 332 333 335 337 337 339 340 343 344 345 347 349 348 350 348 346 347 346 347 347 353 358 357 358
304 307 313 311 307 306 308 308 309 309 313 315 313 310 314 323 328 326 331 333 334 333 334 335 335 337 340 343 344 345 347 352 350 351 350 349 348 347 346 345 344 354 355 356
306 312 311 309 307 308 303 312 313 312 309 302 313 300 308 315 322 326 331 333 332 333 335 336 335 336 339 343 347 346 349 354 351 352 350 347 345 342 344 343 345 351 356 358
304 309 309 307 308 311 307 312 311 311 308 306 309 304 308 312 312 323 329 330 330 335 335 335 336 338 338 344 347 348 349 352 353 352 350 349 345 344 342 344 343 348 351 354
307 316 312 310 312 312 314 309 307 309 307 299 303 306 306 309 312 323 328 330 333 336 337 336 339 339 339 345 347 350 348 350 353 352 352 348 346 342 342 339 341 347 352 355
305 307 314 314 308 311 309 302 294 293 295 295 301 300 302 312 315 318 324 329 331 335 335 336 336 337 339 342 345 349 349 348 352 351 350 352 348 347 342 341 340 344 351 353
297 297 308 314 308 304 305 303 294 289 291 295 300 296 302 311 315 320 327 330 333 333 336 336 337 338 338 340 344 348 348 349 351 354 351 349 353 350 348 348 347 344 349 352
296 297 312 313 311 307 302 299 301 291 294 291 295 299 306 311 312 313 317 329 330 331 336 337 338 338 338 341 344 346 349 349 351 352 354 351 350 356 349 345 349 343 347 351
301 294 308 312 314 309 304 304 295 296 287 288 294 297 299 304 307 311 312 321 327 332 336 338 338 339 339 341 345 347 350 350 352 353 355 355 352 350 355 348 346 352 348 348
298 297 298 306 305 304 301 299 300 296 294 289 289 295 305 307 309 310 313 315 324 330 335 339 340 340 340 341 344 346 348 352 353 355 354 356 356 354 353 354 348 352 352 355
298 296 294 297 306 311 306 302 300 295 291 293 292 296 310 310 312 313 315 316 322 329 335 340 340 341 341 340 342 344 347 352 354 356 356 355 357 357 353 353 354 349 355 354
298 293 292 295 300 305 304 304 303 299 297 293 292 295 311 311 312 314 315 317 319 327 332 338 340 340 341 341 341 343 345 350 353 356 356 356 356 357 356 355 353 356 351 357
303 295 292 292 296 300 300 304 303 301 296 295 298 297 307 310 311 313 315 319 318 326 331 336 339 340 342 342 341 342 344 347 353 355 356 356 357 357 358 358 357 352 357 355
295 290 297 301 303 305 305 304 304 300 300 298 300 301 306 309 313 315 317 319 322 322 330 334 337 339 342 342 342 343 344 346 349 354 356 357 359 359 359 359 360 359 355 358
293 290 296 298 304 305 304 307 306 305 304 303 303 301 311 313 316 317 317 318 319 322 327 327 332 337 341 343 343 344 344 346 348 350 354 357 359 359 359 359 359 360 360 357
290 291 291 291 302 304 298 305 305 305 306 305 300 304 311 311 315 314 315 316 316 316 318 323 326 330 340 344 346 346 347 348 347 348 350 355 357 358 359 360 360 359 360 361
290 290 291 291 298 290 302 311 311 307 308 307 306 312 312 314 317 317 317 315 317 321 322 321 327 325 326 336 347 348 349 349 349 348 349 351 355 356 358 358 358 359 360 360
295 291 288 289 294 298 304 305 305 304 306 313 313 314 316 319 322 322 327 327 327 328 330 332 333 333 334 333 331 343 349 349 350 350 351 352 355 355 356 356 358 359 359 359
295 295 292 292 291 292 298 305 307 309 299 310 313 317 315 319 312 316 325 327 327 330 332 334 334 335 334 334 336 339 344 348 347 349 353 356 356 357 356 357 358 359 360 359
290 291 289 290 290 296 300 304 311 298 300 308 308 311 312 309 313 316 322 324 328 329 329 332 336 338 336 337 335 336 334 337 348 351 352 356 357 357 359 358 360 359 359 360
290 289 288 289 290 288 303 303 297 305 308 308 307 307 309 309 310 311 315 320 322 326 329 331 331 334 339 339 335 330 337 338 348 349 350 351 356 355 358 358 359 360 360 359
287 291 287 291 291 300 303 302 305 306 304 304 305 305 307 308 309 310 310 317 320 323 328 330 330 335 338 344 338 334 339 349 348 349 352 352 354 358 352 358 357 359 359 359
293 296 290 291 295 297 302 303 304 303 304 305 305 306 306 305 308 308 309 316 318 323 325 329 332 336 344 353 351 351 353 352 350 352 350 356 356 356 355 358 360 360 360 359
292 294 290 290 294 296 301 300 302 303 304 306 308 307 306 306 307 309 310 313 314 315 325 326 331 333 344 347 353 353 355 354 354 354 358 357 356 356 356 346 333 355 359 352
293 290 288 287 293 293 294 298 301 300 301 303 305 306 310 309 306 310 310 311 311 312 312 324 328 333 344 344 345 347 350 351 352 355 356 355 354 355 356 343 326 306 306 305

GFSCGP_sfc_thetae_048.txt.gz
Theta_e
302 297 295 298 300 301 305 305 306 311 318 320 317 318 321 330 330 330 331 331 332 333 337 339 340 340 340 341 341 341 341 345 346 345 342 340 338 340 343 345 350 351 353 355
300 297 301 305 303 302 303 302 305 312 316 315 317 316 321 328 328 330 331 331 332 334 335 338 339 339 340 340 341 341 341 342 346 346 346 342 340 341 343 344 351 353 353 355
299 303 308 306 304 301 301 300 302 307 312 314 314 311 318 323 329 331 332 333 334 333 334 336 338 339 341 339 341 342 343 343 344 347 344 344 344 342 341 341 345 352 354 355
302 307 306 305 303 303 297 306 306 307 306 300 312 302 310 318 322 327 329 331 332 333 335 337 338 339 339 338 342 343 345 344 344 348 345 344 343 342 341 340 341 350 353 354
299 303 304 303 304 307 302 307 306 307 304 300 306 302 308 318 319 321 324 325 327 333 334 333 337 338 338 340 341 343 347 345 346 348 346 343 341 342 340 341 340 344 351 352
302 308 307 307 310 310 310 306 305 303 300 297 302 303 303 313 319 321 324 326 328 333 334 335 336 336 338 341 341 343 346 346 347 348 347 344 342 340 340 338 338 340 346 349
300 301 307 311 306 309 307 299 294 290 292 292 301 298 304 317 323 323 324 327 330 333 334 334 334 334 337 340 341 342 344 346 348 347 347 347 345 343 342 339 338 338 345 346
292 291 302 308 306 304 303 300 292 287 288 292 298 295 303 310 316 328 328 330 333 329 332 334 335 335 336 340 342 342 342 344 348 348 347 347 346 347 345 342 339 339 345 349
286 293 306 308 310 309 302 299 301 291 289 290 294 297 304 307 307 324 328 331 331 330 331 334 335 336 337 339 342 344 343 343 347 348 348 349 348 347 347 343 342 338 343 351
292 286 300 306 308 309 304 304 294 289 287 283 290 292 298 302 304 306 325 328 331 331 334 333 335 337 337 339 342 345 345 343 345 349 349 347 348 352 349 345 343 348 341 348
293 288 294 300 298 302 299 300 297 297 290 289 285 293 300 302 304 305 314 328 330 331 334 333 336 337 338 339 342 344 345 345 345 347 350 349 347 346 353 348 344 345 347 343
294 291 287 294 302 303 308 297 297 293 288 288 289 294 305 306 307 307 309 326 330 332 333 334 336 337 337 338 341 342 346 346 347 349 349 351 351 349 346 352 349 346 346 348
294 291 284 290 292 298 296 303 297 294 292 289 291 295 304 305 307 310 310 312 328 331 332 334 336 336 337 337 340 342 344 347 348 349 349 350 351 352 350 347 351 351 347 347
298 291 287 284 289 294 294 299 299 298 293 292 293 295 301 305 306 311 309 311 319 329 331 334 336 336 337 337 338 342 344 349 349 350 350 349 351 353 354 352 349 351 352 346
293 286 287 289 292 295 296 301 301 296 297 295 297 296 300 302 307 309 310 313 321 329 332 335 336 337 337 337 338 341 343 346 351 351 351 351 352 354 356 355 353 352 351 353
291 284 286 285 296 298 298 304 303 301 301 298 298 298 303 308 312 313 316 317 320 327 333 336 337 337 338 338 338 340 341 344 349 350 351 353 354 354 354 355 355 354 353 350
288 285 283 284 296 300 296 298 303 301 301 300 297 300 307 310 315 317 310 314 317 321 331 336 337 338 339 339 340 339 341 343 346 349 350 353 353 354 355 355 355 355 355 354
288 285 284 284 292 288 297 302 302 303 303 304 308 309 312 318 320 321 324 324 325 326 326 326 326 330 338 341 341 341 341 342 343 344 350 352 354 354 356 355 355 356 356 356
293 289 281 285 290 296 298 299 298 296 298 303 305 313 319 320 319 318 322 325 325 327 329 329 330 329 330 334 341 342 342 342 342 343 344 351 353 355 355 355 356 357 357 357
292 293 286 286 288 288 294 301 304 305 292 302 304 305 310 314 306 309 317 323 324 327 329 330 334 336 332 331 334 340 343 343 343 343 345 347 350 353 354 355 355 357 358 357
286 288 287 288 290 293 297 301 306 292 295 303 303 304 304 301 304 307 317 318 324 325 328 329 331 333 334 336 328 331 338 342 346 347 347 349 349 350 353 354 356 356 357 356
287 286 285 286 288 286 299 300 293 296 301 302 303 303 302 303 306 308 314 315 319 322 326 330 332 335 338 340 332 328 329 333 341 347 348 350 352 351 353 353 354 355 355 354
285 289 287 287 289 298 300 301 303 301 299 299 301 303 303 303 305 308 310 311 311 318 320 327 329 335 341 350 338 342 345 346 348 340 344 346 350 352 353 353 352 353 355 354
291 293 288 286 291 293 296 300 300 300 299 300 301 302 305 303 306 306 308 308 309 310 311 321 326 328 334 345 348 348 348 350 349 344 343 346 346 346 348 354 355 355 355 355
291 292 289 288 290 294 297 298 299 300 301 301 302 301 304 305 304 306 306 306 307 308 310 316 322 326 329 340 342 344 345 347 346 348 350 349 349 345 348 329 330 349 349 347
293 290 287 287 293 293 294 297 300 300 300 301 301 300 302 305 304 307 305 306 307 308 310 312 319 326 329 333 340 341 343 345 343 342 345 350 352 348 341 327 320 305 303 302

GFSCGP_sfc_thetae_051.txt.gz
Theta_e
299 293 292 295 299 299 301 304 304 309 314 319 317 317 326 329 329 329 328 329 330 332 335 337 339 339 339 337 335 338 339 341 343 342 340 337 338 339 342 345 348 349 352 349
296 293 298 300 300 299 298 296 299 306 312 318 317 317 325 328 328 329 329 329 331 332 333 335 337 338 338 336 336 338 338 340 344 343 344 339 338 338 340 343 347 349 351 352
295 298 302 301 299 298 297 296 297 301 309 314 312 313 317 327 329 331 331 332 332 332 332 333 335 337 338 337 337 338 338 340 344 344 342 341 340 339 338 339 343 348 351 353
299 303 302 299 299 300 292 301 302 302 302 300 309 298 313 321 324 327 329 330 331 333 334 334 335 336 337 337 340 340 339 340 344 344 342 340 337 335 335 337 339 348 351 352
297 301 300 299 300 303 299 302 302 302 298 300 304 298 306 319 320 323 327 330 332 334 334 334 335 337 338 339 340 341 340 340 342 344 343 341 336 337 339 338 339 343 348 351
298 304 304 303 306 305 306 302 300 299 297 295 300 299 298 312 316 323 327 330 332 333 335 336 337 339 338 339 340 341 340 340 341 343 343 341 340 338 337 338 337 338 345 349
296 299 303 305 301 304 303 296 289 288 289 292 298 297 303 314 319 322 325 329 331 332 334 334 335 336 338 338 338 339 340 340 341 342 343 342 341 339 340 337 338 336 340 343
286 289 299 304 302 300 300 297 289 284 286 293 297 293 300 315 321 324 327 329 330 329 329 334 334 337 338 338 337 339 341 341 342 343 343 343 342 342 342 341 339 338 341 344
287 288 297 300 304 305 300 297 300 291 287 289 294 295 303 312 317 321 324 327 327 329 329 333 335 336 336 337 337 339 340 342 343 343 344 344 344 343 342 341 341 339 339 345
291 285 293 298 303 305 304 303 294 290 286 283 288 292 299 301 305 318 322 324 326 328 330 333 335 335 335 337 339 339 341 341 344 344 345 345 345 345 344 341 339 339 338 343
292 289 289 296 295 297 297 300 298 297 292 291 284 291 298 303 305 312 318 324 327 329 331 331 333 336 336 337 340 339 340 340 342 345 345 345 346 345 346 344 343 343 341 341
294 291 287 289 299 300 296 298 295 296 290 287 293 296 301 303 304 312 320 324 328 330 333 333 332 335 336 335 339 340 340 340 341 345 345 345 346 347 348 346 343 343 344 343
294 289 282 287 291 296 293 296 301 295 291 290 293 295 301 301 303 305 308 315 325 330 332 333 333 334 335 336 337 340 342 342 342 343 345 345 345 344 345 350 350 345 342 342
297 290 286 282 286 290 288 291 293 293 294 290 293 297 298 301 301 303 305 309 320 328 331 333 333 333 335 336 337 339 342 344 343 344 344 345 346 347 345 345 347 350 348 344
293 285 288 287 289 290 289 289 291 292 295 294 296 293 296 300 301 304 310 310 311 317 328 331 332 333 334 335 336 339 341 344 344 343 344 344 347 349 349 348 346 347 350 350
291 284 285 285 289 289 288 291 294 295 298 295 294 295 299 308 315 318 316 310 309 318 328 331 332 334 334 335 336 338 341 343 345 344 344 346 347 349 350 350 350 347 346 349
288 285 284 280 288 292 289 295 297 298 298 298 293 297 309 313 316 316 318 317 313 322 328 330 332 334 335 336 337 337 340 343 345 345 346 347 348 347 349 352 352 350 348 348
287 287 286 280 284 287 294 300 300 297 297 299 302 307 315 315 315 316 319 320 323 324 325 330 333 335 337 338 338 338 341 342 344 346 347 349 350 350 350 350 351 352 352 350
291 288 285 280 285 294 296 297 295 294 293 299 299 302 311 316 317 314 316 321 323 326 329 328 330 333 335 338 338 338 338 340 342 344 347 348 350 350 351 351 351 352 353 353
291 290 286 285 283 288 293 298 301 301 289 298 299 299 303 311 304 306 312 319 321 327 329 330 334 330 333 334 339 337 337 338 338 342 346 349 351 351 350 353 353 353 354 353
286 286 283 285 284 292 297 298 302 288 289 298 299 299 299 300 301 305 311 310 316 320 326 333 340 336 334 328 339 338 338 338 339 341 342 345 351 351 353 354 354 354 354 355
286 285 285 287 288 287 299 299 291 293 297 297 297 297 299 301 305 307 308 307 309 310 321 326 336 341 340 329 333 331 335 334 342 343 342 342 344 349 352 352 353 353 354 353
285 287 285 286 288 297 297 300 298 299 297 297 297 298 298 302 302 305 304 305 307 309 312 322 326 335 341 346 346 345 343 345 341 341 343 345 347 347 347 350 350 351 352 351
290 293 288 287 291 292 296 298 300 299 299 301 300 300 300 299 303 304 303 304 305 307 311 317 323 324 330 339 342 342 345 346 347 347 344 343 343 345 347 349 350 349 350 350
290 292 288 289 292 294 297 299 299 300 301 303 304 302 301 301 302 303 303 303 305 306 312 315 320 322 323 332 338 339 341 342 341 343 344 345 346 341 343 332 331 346 349 343
291 288 286 287 295 295 295 299 301 299 300 302 303 302 303 303 303 305 303 303 305 305 312 318 320 320 321 323 333 337 338 339 337 336 338 337 340 345 341 328 319 305 302 300

GFSCGP_sfc_thetae_054.txt.gz
Theta_e
297 292 291 294 298 298 299 300 302 306 312 316 315 316 325 327 326 324 323 322 322 323 331 337 339 340 341 340 338 339 339 340 341 341 339 341 340 343 345 347 350 351 353 353
293 291 296 297 296 298 297 295 297 304 310 315 314 315 325 327 325 326 327 327 328 329 330 335 337 339 340 338 336 338 339 339 343 342 342 342 341 342 345 346 350 352 353 353
291 295 300 298 296 294 295 293 294 299 305 311 312 310 319 326 328 329 329 330 331 331 331 333 335 337 338 338 335 337 339 339 343 343 342 341 341 341 342 344 347 350 352 355
296 300 298 296 295 296 289 300 301 299 298 295 309 296 308 322 323 326 327 329 329 331 333 334 334 336 337 337 338 337 339 339 342 343 342 341 339 337 338 341 344 349 352 353
296 298 298 295 296 298 294 300 298 299 296 294 299 297 300 317 319 323 327 329 330 332 333 333 334 336 338 339 338 338 338 339 341 343 343 342 340 338 339 341 342 346 350 353
296 301 301 301 302 301 302 298 297 296 294 290 296 299 297 309 317 323 327 329 331 332 333 335 336 337 337 340 339 339 338 338 340 343 343 342 341 337 339 338 339 341 348 350
295 296 300 302 297 300 300 294 286 285 287 289 297 295 299 307 318 323 326 329 332 333 333 334 334 335 337 338 338 339 339 337 339 342 343 342 341 340 339 339 338 338 342 347
285 288 296 300 298 296 297 294 286 281 284 291 295 292 299 310 316 325 327 330 332 333 334 334 335 335 337 338 338 339 339 338 339 340 342 343 343 341 342 341 341 340 341 345
284 287 297 299 300 299 296 293 297 289 287 287 295 296 304 308 311 317 321 325 329 332 333 335 336 337 337 338 338 338 339 339 340 340 341 342 343 342 342 342 342 342 343 346
289 283 292 297 300 300 297 301 292 289 285 281 289 291 298 303 307 313 317 320 326 331 332 334 336 337 338 339 340 339 340 340 341 341 342 342 343 343 344 343 342 341 342 346
287 287 288 294 293 294 294 295 295 295 291 287 285 291 300 305 309 310 316 321 325 329 331 331 332 336 338 340 340 338 339 340 341 342 343 343 344 344 344 343 343 343 342 343
290 290 285 287 296 298 295 292 294 293 290 291 289 293 303 306 307 310 312 321 325 329 330 331 333 334 335 337 339 338 339 340 342 343 343 344 345 345 344 344 344 345 343 343
290 289 279 285 288 294 292 291 289 288 291 292 292 293 304 302 303 305 308 314 321 326 329 330 332 333 335 334 336 338 339 340 342 343 343 344 344 344 344 345 346 346 346 345
295 284 284 281 284 288 287 290 291 287 284 292 295 297 299 304 302 303 305 307 311 325 328 329 331 332 335 335 336 338 339 340 341 342 343 343 344 345 346 347 347 345 346 346
288 281 283 287 289 289 288 289 290 287 289 287 294 296 299 302 304 302 306 310 310 311 326 329 331 331 333 335 336 339 340 341 341 341 343 343 345 346 346 347 350 350 347 346
287 282 287 284 288 288 287 291 292 292 292 292 293 293 302 314 316 315 317 319 320 313 314 328 333 334 333 335 335 338 340 342 342 341 341 344 346 346 346 346 345 347 350 350
286 285 285 279 286 287 286 291 295 295 294 296 292 297 304 312 312 312 314 318 320 323 319 314 329 333 334 335 337 337 340 343 343 342 343 344 345 346 347 348 348 346 345 349
284 284 286 281 286 280 292 300 299 295 295 296 297 300 313 313 314 313 312 314 317 323 326 322 326 333 335 337 337 339 341 342 343 343 343 345 346 346 348 349 349 349 348 346
287 286 284 280 282 288 296 296 294 292 292 296 295 298 302 310 314 313 309 310 313 318 328 329 331 334 336 336 338 339 340 341 343 343 344 346 347 347 347 348 350 351 351 350
289 289 284 285 282 287 292 295 300 299 289 297 296 295 298 310 299 301 307 309 312 316 327 336 332 334 334 336 337 337 339 340 342 344 346 348 349 349 349 349 350 352 353 353
284 285 281 282 284 288 294 296 301 290 289 296 296 296 296 298 301 307 308 309 314 317 323 337 337 332 333 337 337 336 338 339 342 346 349 350 351 350 352 352 353 352 353 354
285 283 284 286 285 285 295 297 291 294 296 297 297 297 296 299 303 305 306 308 314 317 320 327 340 341 339 336 338 336 336 340 342 343 346 349 350 352 352 352 353 355 353 353
285 287 284 286 286 294 296 295 298 298 296 297 297 299 299 298 301 304 303 306 315 319 320 323 325 336 340 345 344 342 345 342 344 342 342 344 349 351 353 352 353 352 354 353
290 293 287 288 292 294 297 299 300 300 298 300 302 301 300 298 301 303 304 305 308 315 319 321 320 320 324 337 341 343 347 350 347 344 345 347 345 345 349 352 353 353 353 352
290 291 287 288 293 296 299 301 301 301 302 302 303 303 302 303 301 303 303 305 307 313 317 318 318 318 319 324 336 339 341 341 343 345 347 349 348 345 349 347 342 351 353 344
294 289 287 287 295 296 297 302 303 301 301 302 303 302 304 305 304 304 303 305 306 310 315 316 316 316 317 319 323 332 339 339 338 338 340 339 343 349 344 334 325 305 305 303

GFSCGP_sfc_thetae_057.txt.gz
Theta_e
304 299 298 300 302 304 305 304 304 315 321 320 319 320 328 331 329 329 329 330 332 332 336 340 343 346 347 349 349 350 350 352 350 348 347 348 347 351 353 355 359 360 360 361
299 296 301 302 301 301 302 302 305 311 315 319 319 318 326 330 330 329 329 330 331 332 334 338 342 344 345 347 349 350 350 352 352 349 351 351 352 353 356 358 359 361 361 363
298 299 303 300 299 298 300 300 302 305 311 315 317 315 320 329 332 333 331 331 332 331 331 336 340 342 344 346 348 349 352 352 354 355 352 352 353 353 352 354 357 360 362 363
302 305 300 299 298 299 296 302 303 304 303 304 315 306 316 324 328 330 331 331 330 331 332 334 339 341 343 346 348 351 352 353 353 356 353 355 348 347 350 353 356 360 362 363
301 302 301 298 299 301 298 302 300 302 302 303 305 307 314 321 323 327 331 333 335 335 334 334 336 340 343 345 347 347 352 354 356 356 356 351 352 351 352 352 357 361 362 362
301 307 306 304 304 303 304 302 301 300 300 295 303 304 307 314 321 327 332 334 336 337 338 340 340 341 343 344 346 347 351 352 355 354 355 356 356 353 349 351 350 352 355 358
298 300 304 307 303 304 302 298 293 291 291 292 305 302 306 315 322 327 330 334 336 338 338 339 340 340 342 345 346 348 350 350 353 353 354 356 356 357 355 354 350 352 350 354
293 291 300 305 303 301 300 300 293 288 289 292 302 299 305 315 318 325 330 334 337 338 339 339 341 343 344 345 347 348 348 349 351 352 354 356 357 350 350 354 350 349 349 352
292 292 300 302 303 305 301 297 303 296 298 295 297 303 310 315 317 319 321 331 334 337 338 339 341 342 344 345 347 348 349 350 351 349 353 355 356 356 352 356 355 351 356 351
293 287 297 299 303 304 303 306 297 297 289 289 295 298 301 311 313 318 319 326 332 337 339 340 341 342 344 345 347 349 350 350 351 351 352 353 355 356 356 356 355 356 354 355
296 290 291 297 298 299 300 299 301 302 298 292 291 296 310 311 317 318 320 324 328 334 338 340 341 344 345 345 347 348 348 351 350 351 352 353 353 353 354 354 355 357 356 356
296 291 286 290 300 301 300 300 302 296 296 299 298 297 311 315 317 319 321 324 328 333 338 340 342 343 344 345 346 346 347 347 349 352 352 352 353 354 352 354 354 357 358 356
296 289 284 286 293 298 297 297 299 301 301 299 295 297 312 314 314 318 320 322 328 334 337 340 341 342 343 346 347 347 347 346 347 351 349 350 351 352 354 355 355 357 357 357
298 291 287 284 287 291 290 293 295 296 296 298 300 303 307 310 313 316 317 318 321 328 335 338 339 342 344 346 348 349 347 347 348 348 348 351 352 353 353 356 357 355 358 356
295 286 288 288 289 290 290 290 293 292 297 296 301 303 309 313 314 317 319 318 320 320 325 335 338 342 344 346 348 349 349 350 349 350 350 351 354 355 356 357 357 357 357 358
295 286 288 286 289 291 288 291 293 294 296 297 299 300 308 315 321 320 322 324 326 328 329 328 338 341 343 346 345 347 349 349 351 351 351 354 355 356 356 357 357 358 357 357
291 287 286 282 290 290 287 292 294 297 299 299 298 305 311 314 318 317 317 319 322 326 330 333 331 339 343 345 346 346 348 350 350 351 352 354 356 355 356 357 358 358 358 356
288 287 288 283 286 281 294 302 302 299 299 301 302 305 310 319 319 318 317 316 318 322 325 331 336 335 346 343 344 347 348 350 350 350 352 354 355 355 356 356 356 357 358 359
293 289 285 281 284 290 297 298 298 299 296 299 299 302 305 311 320 319 314 314 317 321 328 333 338 340 336 346 348 348 349 350 350 350 351 353 355 355 356 356 357 357 356 356
292 293 287 284 281 283 291 296 300 302 295 300 301 302 304 315 313 311 310 311 318 326 331 336 344 342 336 347 348 348 347 350 349 351 353 355 355 355 356 357 358 360 359 356
284 286 283 283 281 288 292 295 300 291 294 300 302 302 303 304 306 308 309 312 322 327 331 344 342 343 348 349 347 347 348 348 352 353 353 356 358 357 359 360 360 359 358 359
284 284 284 285 282 281 294 294 293 298 301 301 303 304 304 306 307 307 308 311 316 319 325 336 344 342 346 349 349 348 349 354 356 357 355 357 359 355 355 360 359 360 360 359
286 289 288 289 288 294 297 296 300 303 301 300 302 305 305 303 303 307 308 309 313 314 315 323 336 339 346 349 349 348 352 355 357 357 358 358 359 359 362 360 359 356 359 356
289 292 287 287 292 294 298 301 303 305 303 303 305 305 306 304 304 305 307 310 311 314 314 315 317 322 332 343 347 350 354 353 354 355 357 357 357 356 360 358 357 356 356 356
290 291 288 289 294 295 296 301 303 306 306 305 306 306 305 306 307 307 307 308 312 314 316 315 314 315 317 328 338 345 348 356 353 353 352 353 353 354 357 358 355 357 361 350
293 292 288 288 296 297 296 300 302 303 305 306 306 306 307 308 308 309 308 310 312 313 315 317 316 315 316 322 326 332 339 348 348 349 352 347 356 351 353 353 342 306 308 305

GFSCGP_sfc_thetae_060.txt.gz
Theta_e
308 305 302 305 307 308 307 308 307 317 325 325 324 325 331 334 335 335 337 337 337 338 342 343 344 345 345 348 350 352 351 354 352 349 347 349 349 353 355 357 362 364 364 366
304 300 307 309 307 306 305 306 308 312 321 324 324 323 327 334 333 336 336 337 337 338 339 341 344 344 344 346 349 352 353 355 354 349 352 350 353 353 355 358 363 365 365 366
302 305 307 305 305 303 304 303 306 309 314 319 322 321 324 330 335 336 338 339 339 338 339 340 343 343 344 346 349 351 355 355 356 357 351 355 356 357 356 357 358 362 365 366
305 309 304 304 302 304 301 306 305 307 308 307 319 310 320 325 330 333 335 337 338 339 340 341 342 343 344 346 350 354 356 357 356 357 356 359 352 348 350 354 355 358 366 365
304 305 305 302 303 306 302 307 305 304 306 308 311 311 316 324 324 331 334 336 337 339 340 340 341 345 346 347 349 353 357 361 361 360 360 353 356 349 351 352 361 365 367 366
306 312 309 308 308 307 308 305 304 304 302 298 307 309 312 317 323 327 334 337 338 339 340 341 343 345 347 348 348 352 358 361 362 359 356 361 361 358 351 355 354 354 356 360
302 303 309 311 306 309 306 302 297 295 294 293 306 306 311 320 326 327 331 336 339 341 341 340 340 342 346 347 349 350 357 360 361 358 357 357 358 361 360 358 354 358 351 353
296 295 303 308 307 305 304 303 297 292 294 296 302 300 308 319 324 329 332 336 340 341 343 343 342 343 344 347 348 350 354 359 359 358 361 363 364 354 355 358 354 353 351 352
295 295 305 306 309 309 305 301 307 301 303 299 301 303 311 318 320 323 326 331 334 338 341 343 346 347 346 346 350 353 356 357 358 356 362 363 363 362 356 364 359 354 362 354
297 291 300 304 306 308 306 310 300 301 294 294 300 301 301 311 316 321 323 325 331 336 341 343 345 347 349 348 349 351 353 356 357 356 358 358 358 362 362 361 361 361 358 360
297 294 294 298 301 301 303 302 304 304 302 296 295 300 311 311 314 319 322 326 328 336 340 343 345 347 349 350 349 350 351 353 354 356 359 359 357 358 359 358 360 360 361 361
298 295 291 294 301 307 305 303 304 299 298 301 301 302 313 314 315 319 322 325 329 332 338 342 344 347 348 349 349 348 350 351 353 357 361 359 359 360 356 358 359 362 361 362
298 292 288 291 295 300 299 303 306 305 306 302 298 301 314 316 318 319 320 324 329 331 334 339 343 345 347 348 349 348 349 350 352 355 354 355 356 356 358 360 359 363 361 362
298 293 290 288 291 294 294 299 302 303 299 301 303 306 311 313 315 319 323 324 325 330 335 338 342 344 347 350 354 353 349 350 351 352 352 356 357 357 357 362 363 361 365 362
298 290 292 292 293 293 292 293 296 297 301 299 304 305 312 314 315 318 321 324 324 323 329 336 340 344 350 352 355 355 351 353 353 357 352 356 361 362 362 363 364 364 364 362
298 290 292 289 292 292 290 293 295 296 299 301 303 305 315 318 320 323 323 326 327 328 329 330 338 343 346 349 353 356 357 355 356 359 356 360 364 364 364 365 365 367 366 365
293 292 289 286 291 291 288 294 297 298 301 302 299 307 314 315 317 323 323 324 325 327 331 335 338 338 343 347 351 353 358 358 358 360 360 362 364 364 365 366 366 366 366 365
291 292 291 286 289 281 292 300 301 300 302 305 306 309 313 317 324 325 324 324 326 329 331 334 336 340 342 345 346 352 354 360 360 361 361 363 364 364 365 366 366 367 365 365
294 291 287 285 286 289 294 298 298 296 299 307 307 310 313 316 325 326 324 325 327 331 335 338 340 342 345 345 347 351 351 355 356 360 361 363 365 363 364 364 365 366 363 364
294 295 289 287 282 282 292 297 301 303 298 307 307 309 311 315 311 318 319 321 327 333 337 340 344 347 348 348 345 347 349 352 356 358 361 364 365 365 364 365 366 366 363 361
287 287 285 286 284 289 297 298 300 291 297 306 308 309 311 315 315 315 312 317 322 325 333 341 349 350 350 351 345 352 352 352 356 356 357 362 364 366 366 368 367 365 363 363
287 287 286 288 285 282 300 298 290 296 303 304 305 308 308 312 311 310 311 313 317 318 324 335 348 349 349 347 347 357 356 358 360 360 358 363 365 359 359 368 366 365 365 365
286 291 289 290 291 299 299 298 300 301 302 303 303 307 308 309 307 307 308 312 313 316 318 318 335 346 353 352 352 352 362 362 362 361 363 362 362 361 365 363 363 360 364 359
288 292 290 288 294 295 298 301 304 305 304 306 306 307 307 308 309 308 308 309 310 312 315 317 319 325 338 351 355 355 358 360 360 360 362 361 360 359 361 361 361 359 358 357
287 289 287 288 292 295 297 300 303 304 307 306 308 308 308 309 309 308 308 309 310 312 314 319 317 319 325 336 341 350 357 358 357 358 359 360 360 360 361 362 358 360 365 351
293 291 288 287 294 295 295 299 301 301 301 302 303 303 306 306 307 309 310 311 313 313 316 319 319 319 321 324 328 334 343 358 356 355 355 355 356 358 359 359 357 308 312 308

GFSCGP_sfc_thetae_063.txt.gz
Theta_e
314 308 305 309 312 311 310 309 309 315 326 324 323 325 327 335 335 337 338 337 338 339 343 343 344 344 344 345 348 350 353 363 356 352 350 350 350 353 359 359 363 364 363 364
308 304 310 311 311 309 308 307 308 314 321 324 323 322 327 333 334 337 338 338 338 340 341 342 343 343 343 345 349 355 357 363 358 353 356 354 356 352 354 355 362 364 362 365
307 308 310 309 308 307 307 306 308 310 315 324 322 320 324 331 335 337 339 341 339 340 340 341 342 342 343 345 348 355 360 363 360 361 357 357 358 357 352 357 356 361 363 364
308 311 308 307 306 308 304 309 308 308 311 308 320 311 317 322 330 334 337 339 340 339 342 343 343 343 343 344 348 357 360 363 361 364 355 361 351 347 349 354 354 358 364 364
306 307 307 306 306 309 306 310 308 306 306 310 312 310 318 326 325 330 334 338 340 341 341 342 343 345 345 345 347 351 361 364 363 363 362 354 357 350 351 351 367 373 371 365
308 314 310 309 311 310 311 308 307 307 305 298 308 310 314 317 321 329 334 337 339 341 342 343 345 347 346 347 347 352 360 364 366 364 362 364 360 360 348 352 355 353 357 360
303 305 310 312 307 310 309 305 298 296 297 296 305 307 313 322 326 327 332 336 339 341 342 342 343 343 346 348 350 353 360 363 365 364 360 361 365 365 367 363 352 355 349 350
297 297 304 308 308 307 306 305 300 294 296 298 305 300 309 321 327 328 330 334 339 340 341 343 344 344 348 350 352 354 359 363 365 363 363 362 365 353 352 360 353 350 349 352
297 297 307 307 309 309 307 303 308 303 305 302 304 306 310 318 321 327 326 332 333 339 341 342 344 345 348 350 354 355 359 363 365 360 365 366 363 359 353 363 366 357 362 354
299 295 304 304 308 309 308 311 302 302 296 295 302 305 304 309 314 320 325 328 332 338 341 343 344 345 346 348 351 355 358 363 362 362 364 363 363 364 364 366 369 363 365 367
300 298 298 302 302 302 304 303 306 306 303 297 297 303 314 312 314 318 322 327 332 338 339 342 344 347 347 348 349 351 354 359 360 362 364 362 362 360 363 365 367 367 367 370
302 298 294 297 303 305 304 303 303 300 300 303 302 304 316 317 316 319 323 326 329 333 338 341 343 347 348 349 349 350 351 352 357 360 363 362 364 361 360 363 364 370 369 369
301 295 291 293 298 302 299 304 306 305 305 303 299 302 317 317 316 318 319 323 328 331 336 340 342 345 347 350 352 349 350 350 352 359 358 361 362 362 360 365 364 368 369 370
300 296 294 290 294 298 297 298 303 304 300 301 303 306 312 315 316 319 321 323 326 332 335 336 339 343 347 351 356 356 351 351 351 353 354 358 360 362 361 364 367 367 369 369
299 292 295 295 296 297 296 297 300 300 304 301 305 306 312 315 316 319 322 325 326 327 330 333 335 343 354 356 359 358 353 356 354 356 354 357 363 363 364 363 367 367 369 369
299 291 294 292 295 296 293 296 297 300 302 303 304 305 314 316 319 320 321 324 327 330 328 331 338 342 345 351 359 359 359 357 356 358 355 359 364 364 364 364 366 369 369 370
297 294 291 288 293 294 290 294 296 297 301 302 300 307 314 314 316 321 323 326 327 329 332 335 337 340 344 348 355 357 360 359 359 361 360 361 363 363 364 365 366 367 368 371
296 295 293 288 291 282 294 300 300 299 300 304 305 308 312 314 316 319 329 328 329 331 333 335 336 339 343 345 349 354 357 362 362 360 365 363 365 365 367 367 366 368 370 369
297 294 289 285 286 290 294 300 301 301 302 305 305 308 311 313 315 318 329 329 330 334 337 339 341 342 344 344 347 352 354 362 362 364 362 365 365 366 367 366 368 369 370 369
296 297 291 288 284 282 294 301 304 306 297 310 309 309 311 314 308 313 323 325 329 332 335 339 343 346 346 348 348 346 350 355 360 364 364 367 368 369 368 369 369 371 371 369
291 292 289 288 286 290 297 301 303 293 296 305 309 310 313 312 316 319 321 324 326 329 331 331 340 350 353 353 350 350 351 354 361 364 366 369 370 370 371 372 372 372 370 366
289 289 288 290 287 283 304 302 294 302 305 306 308 310 308 311 313 314 318 319 320 324 327 328 331 342 358 356 355 357 354 361 366 366 365 368 371 366 367 372 372 372 371 369
288 292 291 292 292 302 302 301 305 306 304 303 307 307 308 309 311 312 313 315 316 319 324 324 324 330 335 352 356 359 361 369 367 367 366 368 369 369 370 370 370 365 368 361
293 294 291 292 297 297 296 302 301 304 305 305 308 308 308 308 310 308 310 312 314 318 320 321 321 323 324 330 341 349 364 369 369 367 368 368 367 366 368 364 365 361 359 359
289 288 288 290 293 293 295 298 299 302 305 306 307 307 307 308 308 309 310 312 316 318 320 319 318 319 321 323 327 332 342 356 360 365 363 365 361 361 364 364 362 360 363 351
292 289 287 286 292 293 295 298 299 299 301 303 304 302 305 305 306 308 311 313 315 317 318 319 318 318 320 321 323 325 329 334 355 356 358 357 358 359 359 360 356 311 319 309

GFSCGP_sfc_thetae_066.txt.gz
Theta_e
315 310 306 310 310 311 309 307 308 312 317 320 319 322 323 328 328 327 334 337 336 337 342 344 344 342 344 346 348 351 355 359 357 356 355 353 352 359 352 353 359 368 365 365
310 306 312 311 312 310 309 307 306 311 315 322 322 317 321 323 324 326 334 335 337 337 339 342 343 341 342 345 347 353 355 359 356 358 359 358 354 356 353 356 362 366 367 368
305 308 312 310 308 307 307 306 306 307 313 321 320 315 319 322 326 331 336 336 337 339 339 341 341 341 343 345 348 352 355 358 357 361 358 363 367 361 356 361 361 366 367 369
309 312 310 307 306 308 303 310 308 307 306 304 315 309 314 322 324 323 325 334 335 339 341 341 341 342 341 345 350 353 356 360 357 362 355 360 354 351 355 356 361 362 369 368
306 308 307 306 307 309 306 311 309 307 305 305 308 307 317 323 317 321 323 333 334 338 340 341 341 343 343 347 349 352 355 359 356 357 361 357 355 354 359 357 362 363 371 371
306 312 311 309 310 310 311 308 308 307 304 298 303 305 308 318 318 318 323 331 335 336 340 343 344 345 344 347 348 353 354 356 358 356 357 359 354 360 357 358 354 359 362 364
301 303 310 312 307 310 309 304 296 296 296 296 304 301 308 318 324 321 324 331 337 339 339 342 343 344 345 344 347 350 353 354 356 356 353 360 356 357 362 365 355 354 357 356
297 296 303 309 308 305 306 304 298 292 294 297 305 299 304 314 329 330 330 331 333 340 341 342 344 345 346 346 346 348 353 354 356 358 353 355 361 355 356 363 357 363 355 358
296 296 306 307 308 308 305 302 307 301 303 299 302 306 311 313 316 329 326 329 328 335 340 342 344 345 348 348 347 349 353 355 357 356 358 353 359 358 353 362 366 359 365 362
299 293 302 305 308 308 305 308 301 301 294 294 300 303 304 310 312 318 327 328 331 333 332 338 344 346 348 349 350 350 354 355 358 357 359 356 353 358 359 354 364 361 365 364
301 297 297 302 301 301 303 302 304 304 303 296 295 301 314 317 315 316 328 329 326 330 332 337 334 347 348 349 351 351 352 356 358 360 358 358 356 355 354 357 355 360 361 373
301 297 293 296 303 305 303 303 303 299 299 302 302 301 315 317 317 317 318 329 329 332 331 332 332 342 347 348 349 351 352 354 359 360 359 358 360 357 355 351 359 363 367 365
300 295 290 293 298 302 299 301 302 302 302 301 299 301 314 317 318 320 318 322 331 334 331 334 339 344 345 347 349 350 352 352 358 360 359 359 358 358 357 353 356 362 360 364
300 295 292 289 294 298 296 299 300 299 297 298 300 303 312 314 315 318 320 324 326 334 334 338 341 339 348 348 348 350 351 353 354 358 358 358 358 358 357 358 354 359 364 362
298 291 294 294 296 296 296 296 298 297 299 298 302 303 309 316 316 318 322 325 326 327 331 334 343 339 346 350 351 351 351 352 353 354 355 357 359 359 360 358 359 358 359 362
300 291 294 291 295 296 294 296 297 297 299 300 301 303 312 316 317 318 322 326 328 332 333 338 340 347 347 351 354 354 353 353 353 353 354 357 358 359 360 359 359 360 360 362
296 295 292 288 293 292 289 295 296 297 299 300 298 305 312 311 315 317 321 323 326 330 333 335 337 340 345 347 355 356 355 356 354 354 355 356 358 358 359 360 358 360 359 361
294 293 293 287 290 281 293 300 300 298 299 301 302 304 308 309 316 318 321 322 325 331 335 337 336 340 343 345 347 358 358 358 358 354 357 357 358 357 359 359 359 358 360 360
297 294 290 286 285 290 293 297 299 299 299 303 306 308 307 308 310 315 323 327 326 329 333 336 339 342 347 348 348 350 358 357 356 358 356 358 356 358 359 358 359 359 359 361
298 297 292 289 283 281 292 299 304 303 294 307 308 310 311 314 301 308 320 323 325 328 331 333 332 335 343 350 349 348 349 359 355 355 360 361 358 359 359 359 359 361 361 360
292 294 288 288 286 289 298 301 303 290 294 306 306 307 310 308 313 315 318 321 322 323 327 331 332 334 341 343 349 350 350 350 360 360 359 362 365 360 363 363 363 362 362 362
290 288 289 289 286 283 302 301 293 299 304 304 306 305 307 309 312 314 316 317 318 319 323 327 327 329 335 338 340 345 353 354 360 364 361 365 362 364 363 364 365 364 364 362
289 291 289 293 292 302 302 299 302 303 301 304 305 307 308 309 310 312 312 314 316 319 322 323 322 323 327 330 333 336 350 361 360 364 362 363 367 365 365 365 364 363 364 362
292 293 291 291 296 298 299 302 301 301 301 305 308 308 309 309 311 312 313 314 315 318 318 319 320 318 320 323 326 330 339 345 361 361 364 363 366 364 364 364 365 364 362 362
290 290 288 289 295 295 297 297 297 299 301 302 304 306 307 308 309 309 311 313 315 317 318 319 318 318 319 320 321 324 331 337 351 365 364 363 363 361 363 362 364 363 365 360
293 289 287 286 291 291 292 297 297 297 298 301 302 303 305 306 308 308 310 313 315 317 317 318 319 317 318 318 318 323 328 333 342 359 361 360 360 361 361 360 353 311 317 311

GFSCGP_sfc_thetae_069.txt.gz
Theta_e
310 302 301 304 305 305 305 304 302 305 311 310 320 321 321 324 329 333 332 331 332 334 337 338 337 337 340 342 340 343 344 346 350 349 346 345 343 345 348 353 356 357 357 347
306 301 307 311 309 307 304 302 302 306 308 313 321 319 322 322 328 331 328 332 332 334 336 337 336 336 337 340 339 342 346 347 349 348 348 345 345 350 347 349 351 357 357 352
300 306 312 310 307 303 302 300 301 302 306 314 318 314 318 324 327 330 333 332 334 334 335 337 334 336 337 338 340 341 349 348 349 347 346 349 350 349 344 348 349 355 357 357
304 308 306 306 305 304 294 304 305 304 299 293 309 303 313 317 321 327 331 328 328 333 336 337 334 334 337 338 343 342 349 348 347 350 343 344 344 342 346 349 352 355 355 357
301 305 305 304 304 305 300 306 304 303 298 294 299 293 310 318 316 322 326 327 328 331 335 335 336 335 338 340 342 345 350 348 347 349 345 344 342 345 346 350 352 352 355 357
301 307 304 304 308 307 308 303 301 299 295 290 295 294 306 313 317 318 324 325 330 331 334 337 338 338 337 342 341 346 349 346 346 347 349 344 343 343 347 346 348 352 354 356
297 298 301 305 302 305 302 295 288 286 288 288 295 293 295 320 323 320 322 327 330 332 336 336 336 336 336 339 342 344 346 348 346 345 346 350 344 343 347 347 351 351 351 351
289 289 297 303 301 299 298 295 289 284 286 289 297 291 297 316 327 325 326 327 332 333 333 335 337 337 337 339 342 344 344 346 347 345 344 347 349 345 347 349 348 351 352 351
289 291 301 303 303 303 299 295 298 292 295 290 294 298 303 307 321 323 322 325 332 334 333 333 338 338 338 340 340 344 344 344 348 347 343 345 351 344 345 347 351 350 348 352
293 287 296 300 302 303 300 300 291 292 285 284 292 294 296 303 308 321 321 328 325 329 333 336 338 339 339 340 342 343 346 345 348 348 346 344 347 351 347 346 349 350 346 350
294 289 291 296 293 294 296 294 293 293 291 287 287 292 303 305 307 312 324 326 323 327 332 336 337 337 337 338 342 343 346 346 348 347 350 345 343 350 349 346 344 349 349 353
295 288 285 290 298 300 297 293 291 289 289 293 292 294 308 307 309 316 324 329 327 331 334 334 337 338 331 333 342 342 344 347 349 350 350 350 345 346 349 346 344 349 348 350
294 288 283 287 290 295 293 296 294 292 291 290 287 293 309 311 312 317 319 325 327 328 332 329 329 325 327 333 338 343 344 348 350 351 349 350 350 344 346 346 346 345 354 349
299 287 285 282 287 291 290 293 295 292 285 287 289 294 301 307 309 312 314 324 325 328 329 329 327 329 331 336 338 344 344 347 351 352 352 350 350 350 345 345 343 351 352 354
292 284 287 289 292 292 292 292 294 291 292 286 291 293 298 308 309 313 318 324 326 328 329 330 331 332 338 340 342 342 346 346 351 352 353 352 352 352 353 349 346 343 353 351
295 287 290 289 293 292 290 293 294 294 294 294 294 294 301 305 311 312 314 319 322 326 331 335 335 338 340 344 338 341 344 347 348 351 353 354 353 353 352 352 351 344 346 354
291 288 287 283 290 290 285 290 292 293 296 295 290 295 300 301 303 314 320 319 322 324 325 327 331 335 338 339 340 336 339 348 348 348 352 352 353 353 352 353 351 350 345 347
289 289 287 283 285 279 289 296 296 294 296 301 302 301 307 308 311 317 321 321 320 321 324 326 327 329 335 339 338 339 342 342 345 346 348 351 352 352 353 353 351 351 352 350
293 290 284 282 281 286 290 292 296 295 294 302 301 303 305 309 311 311 315 320 319 318 321 324 327 328 332 340 342 341 342 339 337 345 348 350 351 352 352 351 352 352 352 353
294 293 289 285 279 278 289 298 302 300 288 301 301 301 302 305 300 304 312 317 317 318 319 322 325 326 328 333 336 339 331 330 332 343 350 351 351 352 351 353 352 354 352 351
287 288 285 284 284 287 296 299 301 287 288 301 301 301 302 301 305 309 312 313 314 316 318 322 321 321 324 327 328 331 335 341 346 350 352 353 351 352 353 353 353 353 353 352
287 287 284 285 282 280 298 299 291 295 298 299 300 300 301 304 307 309 311 311 312 313 318 318 317 319 321 323 322 325 327 332 337 342 352 352 354 352 354 353 354 353 353 352
285 288 285 288 289 295 298 297 299 299 296 298 298 301 304 304 305 309 309 310 312 314 316 316 314 316 318 320 320 319 322 327 330 335 347 350 355 353 353 354 353 353 353 352
290 292 287 286 292 291 295 296 297 297 297 298 301 302 304 304 307 307 309 309 311 314 314 316 315 314 315 317 319 320 322 325 327 332 344 355 355 355 353 357 356 355 354 354
290 290 288 288 291 291 294 294 296 296 298 299 301 302 303 303 305 307 307 307 309 311 313 313 314 312 313 315 316 319 320 321 323 327 340 355 355 352 356 357 357 357 358 354
292 289 286 285 292 291 291 295 297 295 296 298 300 300 302 304 303 306 305 307 310 312 314 313 313 311 310 312 313 317 319 319 321 324 338 350 355 356 357 355 343 310 314 316

GFSCGP_sfc_thetae_072.txt.gz
Theta_e
305 299 296 302 304 303 301 299 299 304 308 305 321 323 326 329 329 331 331 331 331 332 336 335 334 339 338 338 336 339 341 340 343 344 342 341 342 345 350 350 352 353 352 349
302 297 304 308 308 305 302 299 298 303 307 317 320 320 324 327 329 331 332 332 332 332 334 336 332 337 337 337 337 338 342 341 344 344 343 343 342 343 350 350 353 353 352 344
300 304 310 307 305 303 300 297 299 299 312 319 318 314 316 322 329 332 335 334 334 332 333 334 332 337 337 336 338 340 343 342 345 345 345 344 345 344 344 344 347 353 354 350
301 306 305 304 304 303 293 302 303 301 296 291 310 303 314 318 322 329 331 330 332 333 335 336 332 333 336 336 340 342 344 343 346 344 342 342 343 340 341 343 346 350 355 353
297 302 302 301 302 304 301 305 301 300 294 291 295 292 300 317 316 323 329 329 332 333 335 336 332 333 337 338 338 344 345 344 346 345 341 343 339 340 343 344 346 349 350 353
297 302 302 302 306 305 306 300 297 294 292 287 291 292 296 309 315 320 329 331 332 331 334 336 337 334 335 339 338 345 344 343 345 345 340 340 340 339 343 344 347 348 349 351
294 297 297 301 296 301 299 292 286 286 285 285 291 291 293 313 319 320 325 330 332 331 333 335 334 333 334 336 338 342 344 342 343 344 345 340 342 339 342 343 347 347 348 350
287 287 295 300 295 294 296 292 287 282 283 286 293 288 295 309 322 323 324 329 332 330 331 333 334 333 335 336 338 340 343 342 343 344 344 345 342 342 342 345 347 348 350 352
286 288 299 300 299 297 296 292 295 288 286 286 290 295 301 303 313 322 321 325 329 332 333 334 337 335 336 337 337 340 342 342 342 342 342 343 347 342 342 345 347 349 349 350
290 285 292 299 299 298 293 296 290 287 283 282 288 290 293 299 307 316 320 322 326 333 333 335 337 339 339 338 339 340 342 342 344 343 342 342 343 347 341 344 344 348 347 348
289 287 289 294 290 289 291 289 288 288 288 284 283 288 299 303 310 313 319 324 325 331 333 335 338 339 339 338 339 341 341 341 344 345 343 341 341 344 344 342 344 345 345 347
291 285 283 286 294 297 293 289 286 283 283 287 288 290 304 308 311 318 322 322 326 331 334 335 337 338 338 336 336 340 342 342 342 346 345 342 340 342 345 345 342 344 345 348
292 284 280 284 287 291 290 291 288 287 284 283 284 288 302 308 314 319 321 324 327 328 330 331 332 334 336 337 335 337 341 344 344 345 345 345 341 340 342 346 345 340 345 345
296 284 282 279 283 287 287 290 291 286 281 282 284 289 294 299 306 312 320 324 325 327 330 331 329 332 332 332 334 334 340 345 345 345 345 345 346 342 339 344 345 344 341 345
290 282 284 285 290 291 291 290 291 287 287 283 288 288 292 297 300 311 317 323 325 328 331 331 332 332 333 335 336 341 341 343 347 346 346 345 348 348 344 340 344 343 345 345
290 284 286 286 291 290 288 291 292 291 291 290 291 290 304 307 313 316 317 321 323 326 326 327 332 337 336 337 339 341 341 342 347 346 346 348 347 349 349 344 341 342 341 347
286 285 283 278 288 287 282 287 290 291 292 294 292 296 303 304 308 308 311 317 320 323 325 326 328 330 335 339 340 338 338 341 342 346 348 349 349 348 349 350 346 343 341 340
285 283 283 279 283 276 286 292 294 293 297 299 299 300 302 303 306 308 311 314 315 319 322 325 327 330 336 337 337 339 340 343 342 343 347 351 351 350 350 350 350 348 346 341
287 284 280 278 278 284 288 291 290 292 293 298 297 299 301 303 307 305 309 312 312 314 319 324 326 327 331 329 330 336 341 341 339 337 338 344 353 352 351 349 349 350 349 347
289 288 284 281 276 276 286 296 300 297 287 299 299 298 298 300 295 299 307 311 312 314 319 320 323 323 323 323 326 330 334 336 336 338 337 343 346 351 351 351 351 351 351 350
282 284 280 280 280 285 293 295 299 284 285 297 298 298 297 295 299 303 307 309 312 315 317 318 319 319 321 322 323 323 326 328 329 333 334 337 342 350 352 352 352 352 351 350
283 283 282 280 276 278 294 296 289 293 294 295 296 297 297 299 303 305 307 308 311 313 316 317 316 318 319 320 319 318 319 323 327 330 331 334 339 351 351 352 352 352 350 350
283 285 279 286 288 293 296 295 296 295 292 293 295 297 299 298 301 303 305 305 308 312 314 315 315 315 316 317 316 315 318 321 323 326 329 332 337 348 351 350 349 350 350 349
286 291 286 283 289 291 293 295 294 296 295 295 296 297 298 298 301 301 303 305 305 309 312 314 314 313 313 314 315 315 317 319 320 323 326 330 336 345 350 352 350 350 349 348
285 288 285 287 288 291 293 294 294 296 296 297 298 298 300 300 301 301 301 303 304 306 310 313 310 310 310 311 312 313 316 318 318 320 323 327 337 344 352 350 350 351 352 348
291 286 283 280 287 291 292 296 297 296 295 296 295 296 300 301 301 302 301 303 304 305 311 313 312 310 307 308 309 312 314 316 317 318 320 324 328 334 352 351 338 311 315 317

GFSCGP_sfc_thetae_075.txt.gz
Theta_e
302 297 295 299 302 304 301 298 297 301 306 302 318 320 324 329 329 329 329 330 330 331 334 332 334 337 339 339 340 341 341 339 342 340 340 340 340 343 346 348 349 351 350 349
300 295 302 305 306 304 301 298 296 301 310 309 318 318 324 329 328 331 331 329 330 331 332 330 334 336 336 338 339 341 341 339 342 341 341 341 342 343 344 346 349 351 350 346
297 303 309 305 303 301 298 296 297 298 306 319 317 317 320 325 328 331 333 334 332 331 332 329 333 334 335 337 338 341 340 340 342 341 342 342 343 343 343 343 347 350 350 344
301 306 306 302 302 301 293 302 302 300 294 290 311 303 315 318 321 326 330 332 332 331 333 332 331 333 334 335 338 342 341 341 341 341 341 340 339 338 341 342 343 349 353 348
299 299 300 299 300 303 300 304 300 298 293 290 294 293 302 316 315 322 328 331 333 334 334 333 330 334 335 336 336 338 341 340 342 342 341 340 339 340 340 342 342 345 349 350
295 300 301 302 305 304 305 300 295 292 290 285 290 290 292 308 315 319 327 331 334 332 334 335 332 335 335 336 337 339 340 340 342 341 339 340 339 338 339 340 341 343 346 349
293 294 297 298 293 298 296 291 285 284 284 284 288 289 293 310 317 319 323 329 333 332 333 334 331 331 334 334 336 339 340 339 342 341 339 339 340 339 339 340 341 343 344 346
286 286 294 298 293 291 293 291 286 281 282 285 289 287 294 300 306 319 324 328 332 333 334 333 334 331 333 335 335 340 340 339 341 342 341 339 338 340 340 342 343 345 347 348
284 287 297 299 297 295 292 289 291 286 284 286 287 292 298 308 313 316 319 324 330 333 333 334 335 332 332 335 335 339 340 340 341 342 342 341 339 338 339 343 344 345 346 350
287 284 290 296 297 296 291 293 287 286 282 281 286 288 293 302 307 315 318 320 326 332 331 332 335 332 333 334 336 337 341 340 341 342 342 342 343 342 339 340 344 345 345 346
287 286 287 291 289 288 289 287 285 285 285 282 283 287 300 303 307 315 319 321 322 329 330 332 335 335 335 335 336 337 338 340 340 341 342 341 341 342 342 340 341 343 346 345
290 283 282 285 291 295 292 286 284 281 281 283 285 288 297 299 308 316 320 322 324 329 331 333 335 336 334 335 336 336 338 339 340 342 341 340 340 341 342 342 341 341 342 344
291 284 281 282 286 289 287 288 286 284 281 280 280 285 298 301 302 312 319 323 325 328 331 333 334 334 333 333 334 337 337 339 341 342 341 340 339 339 339 342 343 340 341 343
294 282 282 280 281 285 285 289 288 284 281 281 283 286 294 302 305 313 318 322 325 327 328 329 328 330 334 333 333 334 337 340 340 342 342 341 340 339 339 340 342 343 340 342
287 282 284 284 289 289 288 288 289 285 285 283 286 286 297 301 307 309 315 320 323 323 324 327 329 331 335 334 332 334 339 339 342 340 342 342 343 341 339 339 340 341 343 342
288 283 284 283 289 288 286 288 290 289 289 288 290 290 300 303 307 307 309 314 317 321 324 325 327 332 337 337 336 337 339 341 343 342 341 343 344 344 341 338 338 340 341 342
284 283 281 277 286 285 280 285 288 288 293 291 289 294 300 300 304 305 306 307 310 313 321 322 324 326 332 333 334 335 336 338 340 343 343 344 343 343 345 343 338 337 339 340
283 282 281 277 281 275 283 290 293 295 297 297 297 298 299 300 305 306 308 307 308 311 317 320 322 322 326 328 328 331 339 338 340 340 343 345 346 343 345 347 344 340 339 339
285 282 279 278 276 282 287 290 291 289 291 297 295 297 298 299 302 305 305 308 309 311 315 317 319 321 322 322 323 328 336 338 338 338 338 342 348 347 346 346 346 346 343 341
287 286 283 278 274 276 284 294 297 295 286 297 297 296 296 297 293 299 303 306 309 313 316 316 318 319 319 320 321 324 325 329 328 332 338 341 344 349 350 349 347 349 348 346
279 283 279 278 276 283 291 294 297 283 283 295 296 295 294 292 295 299 304 306 309 311 315 316 317 317 316 318 317 318 321 320 324 328 331 334 337 341 343 348 351 350 349 349
280 281 279 282 275 276 294 294 287 290 291 293 294 294 293 295 297 299 302 305 307 308 312 315 315 315 317 316 315 314 315 319 322 324 328 330 333 338 344 346 349 351 349 348
278 283 278 283 282 293 293 292 293 293 290 291 292 293 294 294 296 298 299 301 305 306 309 313 312 314 314 314 311 310 312 316 319 320 321 325 329 333 338 346 348 349 349 348
283 291 283 283 285 289 291 293 293 292 292 296 296 294 297 296 297 297 300 301 302 304 306 309 311 312 309 311 311 311 312 314 315 318 319 321 325 328 336 344 349 348 348 347
283 290 283 281 285 287 291 292 295 295 297 297 297 297 296 296 296 298 299 300 301 302 304 307 310 308 309 309 309 310 311 313 312 314 315 319 324 325 329 336 349 349 350 347
289 286 281 281 286 286 287 292 294 295 296 297 297 297 298 297 297 299 300 301 300 301 303 306 310 309 307 307 307 309 310 310 311 309 312 316 318 322 326 333 345 313 317 316

GFSCGP_sfc_thetae_078.txt.gz
Theta_e
300 295 293 297 301 302 300 298 297 300 303 301 312 316 324 330 329 330 330 329 330 331 334 333 334 337 339 340 339 340 341 342 342 341 340 340 341 345 349 349 350 351 352 350
297 293 300 303 304 303 301 298 297 302 309 307 314 314 323 326 326 330 330 330 330 331 331 330 333 334 336 338 339 340 342 340 343 343 342 343 344 346 349 350 351 353 353 350
295 301 305 304 302 300 297 296 296 300 302 318 314 314 320 326 328 330 332 333 331 331 330 329 330 332 336 337 339 340 341 341 344 343 343 343 345 345 346 347 349 352 353 350
299 305 306 302 301 300 291 301 302 300 293 289 309 296 310 319 322 326 328 331 330 330 333 329 331 332 335 337 340 341 342 341 343 342 342 342 341 341 344 346 348 352 354 350
300 300 300 298 299 302 299 302 300 298 292 289 294 295 301 314 313 319 325 330 333 333 332 329 331 334 335 337 339 341 342 341 343 342 343 342 341 342 344 345 346 349 352 352
296 298 299 301 303 304 303 296 293 290 288 285 288 291 291 307 313 316 323 327 333 334 334 332 332 335 334 337 338 341 341 340 342 343 340 341 341 341 341 342 344 345 349 352
292 293 295 297 292 297 295 290 283 283 283 284 287 289 292 298 306 314 317 326 333 336 335 333 329 332 334 334 336 338 340 339 341 341 340 341 342 342 342 343 343 344 347 349
285 285 292 297 292 290 291 290 285 280 281 285 289 287 295 307 313 319 321 324 331 335 335 335 332 332 333 334 335 336 338 339 340 342 340 340 341 342 342 344 345 345 347 350
285 286 295 297 295 293 291 287 290 285 283 285 287 294 299 303 309 317 320 321 326 333 335 334 336 331 334 334 335 336 337 338 340 342 341 339 340 341 341 344 346 347 349 351
286 284 289 295 295 295 291 291 287 286 282 281 285 289 290 293 296 306 317 319 322 326 333 334 335 332 333 335 335 337 339 338 339 342 342 341 340 341 342 343 345 347 349 350
286 285 286 290 287 285 287 285 285 285 284 282 282 286 294 294 300 301 315 320 324 325 332 333 335 334 333 335 336 336 339 339 339 341 342 342 342 341 340 341 344 347 349 349
291 285 281 283 290 292 288 285 283 283 282 281 284 285 295 302 308 312 317 321 325 328 329 332 334 334 334 333 335 335 337 340 340 341 342 342 343 343 342 341 342 345 347 349
291 284 279 281 285 288 287 288 283 282 281 280 283 285 297 306 308 310 313 321 322 327 328 330 333 334 334 336 336 336 337 338 341 341 341 342 341 341 343 343 343 344 345 346
294 284 282 279 281 285 286 288 288 283 281 281 283 286 295 301 305 307 309 317 322 324 325 330 332 331 334 335 336 337 338 340 340 341 340 340 341 340 341 343 344 343 344 344
286 283 284 285 288 288 287 287 288 285 284 282 285 288 296 300 304 305 307 310 314 320 320 322 325 333 335 337 337 337 338 340 340 340 341 340 342 342 341 342 342 345 344 344
287 283 283 282 288 287 286 288 289 288 289 288 289 291 299 303 306 305 305 307 309 314 317 319 321 321 327 327 329 334 338 340 342 340 340 343 343 343 341 341 341 342 344 344
284 283 280 277 284 284 280 285 287 289 292 289 285 292 299 299 302 303 304 306 307 311 315 316 319 319 322 323 325 327 331 339 340 342 342 342 344 344 344 342 340 340 341 344
283 281 280 277 278 275 282 289 291 293 296 297 296 297 298 298 299 303 304 303 305 308 313 315 317 319 320 323 321 325 331 338 339 340 343 343 343 343 345 345 341 340 340 341
284 282 278 277 276 281 286 291 291 289 290 296 295 296 297 298 299 301 302 303 305 307 311 315 316 319 320 320 319 322 327 327 329 333 338 343 347 344 344 345 346 344 341 340
286 284 281 278 275 276 283 293 296 294 285 295 296 294 293 295 289 299 300 301 304 308 310 314 316 317 318 319 318 318 322 322 322 324 327 331 336 342 346 345 346 347 347 343
278 280 278 278 276 282 291 293 296 283 284 294 294 294 292 291 293 296 299 300 302 305 307 312 313 315 316 318 316 315 316 317 320 323 325 329 332 335 340 344 350 348 349 347
279 276 281 281 277 276 294 293 288 290 291 292 293 293 292 293 294 296 297 298 300 301 304 307 308 311 315 317 313 312 312 316 319 321 324 326 329 332 336 338 342 348 350 348
278 281 279 281 281 290 293 291 293 293 290 291 292 293 294 293 293 295 296 297 299 301 303 306 306 308 313 315 314 310 312 315 317 318 320 322 326 330 334 336 338 341 348 349
282 286 279 281 284 287 291 292 293 293 292 294 296 296 296 294 295 295 295 296 297 300 301 304 304 305 308 313 312 311 313 313 314 314 316 318 321 323 327 333 337 337 346 348
282 286 283 280 284 287 289 292 293 294 296 297 298 297 297 297 297 296 296 296 298 299 301 302 303 304 305 311 310 311 311 312 310 312 312 314 318 319 322 327 331 334 340 346
286 284 280 280 286 287 287 292 294 293 294 295 297 297 299 298 297 297 296 298 299 299 301 301 302 303 305 309 308 308 310 309 309 308 309 312 314 318 320 322 326 319 314 313